GFSSW_sfc_thetae_060.txt.gz
Theta_e
322 322 321 321 320 319 318 318 317 317 317 318 318 318 318 318 315 309 301 307 311 321 318 307 304 303 301 297 295 292 287 284 288 289 295 308 304 310 311 311 316 320 317 323 327
323 323 322 321 319 319 318 318 316 316 317 318 318 318 318 317 309 304 314 320 322 324 306 302 298 300 296 294 293 291 285 287 292 295 303 307 304 306 306 309 313 318 323 325 325
324 323 322 321 320 319 318 317 316 316 317 318 317 318 317 314 299 303 325 324 324 321 307 303 302 299 294 293 293 289 289 292 295 305 307 306 304 307 304 301 312 315 317 322 322
322 322 321 320 320 319 317 316 316 316 317 317 317 317 317 309 290 301 328 327 326 315 306 301 299 296 294 292 294 289 293 294 302 307 306 304 305 304 304 305 317 320 322 322 320
320 320 320 320 320 318 317 315 316 316 315 316 316 317 309 297 298 305 323 325 315 308 302 301 300 298 294 294 294 291 298 303 306 306 305 306 301 303 306 315 320 321 321 320 319
320 319 319 318 318 318 317 315 315 314 315 316 316 317 305 292 303 314 308 308 309 305 302 301 301 301 297 296 295 303 301 303 303 304 306 302 302 301 309 318 319 319 318 318 319
318 319 318 318 318 317 316 315 314 314 315 315 316 312 303 296 304 307 311 308 308 306 301 303 304 300 301 297 302 301 298 300 300 302 301 302 296 298 311 317 315 316 318 318 318
317 318 318 317 316 316 315 314 313 314 314 315 315 307 296 307 308 311 310 310 309 309 304 305 305 302 300 300 298 296 293 291 297 301 301 299 291 301 313 315 313 314 316 317 317
316 316 317 316 315 314 313 313 313 315 315 314 305 301 297 311 305 308 311 308 307 307 306 308 304 299 299 294 289 290 286 289 293 303 299 298 293 303 315 314 312 313 314 314 314
315 316 317 316 315 313 312 312 313 312 312 313 310 298 299 300 306 309 310 309 304 304 304 302 298 294 293 290 284 287 287 292 290 297 299 295 296 300 311 313 312 312 313 314 313
315 315 316 317 316 313 309 304 299 301 305 300 300 297 298 307 310 305 306 305 304 302 295 299 294 290 292 293 295 295 294 292 293 298 294 294 295 297 303 309 310 311 311 313 314
314 314 315 317 316 313 308 299 300 303 297 303 305 303 305 308 303 306 306 299 298 293 297 295 292 296 297 298 296 295 294 292 295 296 295 293 293 296 301 306 310 311 311 313 315
313 313 314 315 313 309 303 303 309 308 296 298 304 303 304 307 302 302 304 299 295 293 295 291 295 300 298 296 294 293 292 291 292 294 294 292 290 294 298 303 306 311 314 313 314
312 312 312 313 308 306 303 310 310 307 288 292 300 303 307 307 300 308 304 301 296 293 294 293 297 297 295 294 295 289 296 296 294 290 285 290 283 289 293 299 303 306 310 312 311
311 312 312 312 306 304 309 310 310 304 276 294 302 309 306 300 298 299 303 300 295 295 295 292 294 294 293 294 297 293 297 295 295 291 287 287 284 288 293 296 300 303 305 310 310
311 311 311 311 309 308 310 310 309 289 278 291 301 300 298 296 297 298 299 301 300 297 295 293 298 297 296 298 298 298 295 292 291 289 283 287 286 286 289 294 299 302 302 305 307
310 311 311 313 307 309 310 306 294 283 294 292 296 297 294 292 293 295 294 293 291 288 288 292 294 296 299 294 296 294 289 282 281 280 281 289 287 289 292 296 298 301 303 303 304
309 309 309 311 312 309 310 300 285 290 291 298 296 295 292 292 292 294 291 290 291 291 287 287 285 294 297 295 292 292 290 283 279 278 281 289 285 290 297 299 300 299 300 303 301
308 302 303 307 313 309 303 290 286 291 296 294 293 289 289 293 292 292 290 289 292 293 288 286 287 296 299 299 296 292 288 291 285 284 280 284 289 293 296 297 300 298 300 300 300
303 298 298 308 314 306 295 291 294 297 300 299 289 291 286 289 290 290 289 293 292 295 294 292 285 294 298 299 298 294 296 287 285 280 279 281 283 285 291 294 298 299 299 301 302
301 293 298 308 311 301 289 290 297 301 301 297 295 292 291 290 291 289 290 293 295 294 294 293 289 288 295 293 292 291 290 289 289 284 280 278 282 291 292 295 295 296 300 300 305
298 286 302 310 295 297 293 292 298 298 300 298 298 297 294 292 290 290 291 294 297 296 292 295 289 284 290 294 296 293 292 290 283 283 283 280 282 293 293 294 297 298 301 302 306
293 291 307 306 288 291 296 294 296 296 296 295 295 298 298 292 288 291 293 297 297 296 294 295 288 282 285 289 294 292 293 292 289 285 283 278 283 293 293 294 296 297 299 303 305
293 284 296 299 296 292 292 292 291 299 297 297 296 297 296 293 294 291 293 298 300 298 300 298 291 286 283 286 290 289 291 292 290 282 284 283 286 291 293 293 294 295 297 297 304
293 287 294 289 290 292 294 294 291 291 297 297 294 295 294 290 291 291 296 298 299 299 297 295 288 289 289 290 291 290 290 289 288 288 285 287 286 291 293 292 293 293 294 296 298
289 289 295 291 293 292 294 292 291 293 294 293 292 294 295 291 293 292 297 295 294 295 294 294 288 288 287 289 290 288 291 290 290 289 288 288 288 293 291 292 293 294 296 299 299
295 295 295 292 293 290 291 292 292 295 296 297 296 294 293 295 298 300 300 299 298 294 292 291 289 285 284 286 287 283 288 290 291 291 290 286 290 292 291 292 291 294 296 298 298

GFSSW_sfc_thetae_066.txt.gz
Theta_e
324 324 323 323 322 321 320 319 318 318 318 318 318 318 319 318 316 316 311 315 315 321 319 315 314 314 312 307 309 309 301 298 298 299 301 312 312 317 319 319 321 323 323 328 331
322 325 325 324 322 321 320 319 318 318 318 318 317 318 318 317 315 310 317 320 323 324 314 311 309 311 310 308 308 305 301 299 303 304 303 309 313 314 315 315 317 320 325 330 330
319 321 323 324 322 321 320 318 317 318 318 317 317 318 317 317 310 311 325 323 324 320 316 313 310 309 307 308 307 305 301 304 305 306 306 308 312 316 313 310 316 317 322 327 326
317 318 319 322 322 321 319 317 318 318 318 318 317 318 317 316 298 315 328 328 325 321 315 311 308 306 305 304 307 302 306 306 305 310 309 309 314 312 313 315 321 324 326 326 322
315 316 318 319 321 320 319 318 318 318 317 317 317 317 315 306 305 317 328 327 321 315 311 308 306 308 304 306 306 303 306 310 309 311 312 313 310 310 315 322 325 326 325 321 322
315 315 316 317 318 319 319 318 317 317 317 317 316 316 311 300 310 318 317 317 315 314 311 311 310 311 307 306 305 310 309 309 311 311 313 309 309 312 318 324 323 322 322 322 322
314 314 315 316 316 317 318 317 316 316 316 316 316 315 307 305 312 318 316 315 317 314 310 312 312 310 310 306 312 311 307 310 311 312 309 312 307 307 316 322 320 321 320 322 323
313 313 313 314 314 315 316 316 316 316 316 316 315 314 303 312 315 312 315 316 317 316 314 314 314 312 310 310 307 305 305 299 308 310 310 310 301 309 318 320 318 319 321 320 321
312 312 313 313 313 314 315 315 315 316 315 315 314 310 302 313 309 312 313 311 314 316 316 312 313 310 309 304 301 302 297 298 300 309 307 307 302 311 319 319 318 319 320 320 320
312 312 312 313 313 313 314 314 317 313 315 315 314 305 308 305 310 314 317 313 312 312 310 310 310 306 306 302 293 296 297 298 299 304 306 304 304 307 316 318 317 319 318 319 319
312 312 312 313 313 314 315 318 310 306 310 306 305 305 305 311 315 313 316 313 312 310 305 309 303 300 301 303 302 301 299 298 301 305 303 303 303 305 312 316 315 318 318 318 319
311 311 311 312 313 314 314 311 310 309 300 308 307 308 311 311 306 312 315 307 306 303 306 304 301 305 305 304 302 301 299 299 302 304 303 303 302 304 308 314 316 317 318 319 320
310 311 311 312 313 313 314 313 313 313 301 304 308 305 306 310 304 307 311 308 304 302 303 301 302 305 304 303 301 301 299 299 298 303 304 302 300 302 306 313 317 318 319 321 321
309 310 310 311 309 315 312 315 317 316 298 297 300 305 307 308 303 311 313 308 304 301 303 302 306 302 302 300 302 298 303 301 300 299 295 301 293 299 303 306 311 315 319 320 321
309 309 310 310 309 310 313 319 316 313 284 298 301 311 308 302 303 305 313 307 302 302 303 300 301 301 300 301 304 299 303 302 301 300 299 298 295 299 303 302 305 311 316 320 322
309 309 309 309 310 314 317 319 313 295 284 294 303 302 301 302 302 306 306 309 309 303 304 303 306 305 303 304 305 305 303 301 302 300 293 296 296 298 300 302 305 308 311 316 321
309 308 308 310 305 317 318 311 295 287 296 293 298 301 300 298 300 302 301 300 298 295 296 300 301 305 305 302 304 303 300 293 291 291 291 297 295 297 303 305 307 308 311 314 317
308 307 308 310 311 314 312 298 286 290 293 299 300 299 296 298 299 300 299 297 302 300 297 294 292 301 305 303 300 301 301 294 285 287 291 296 291 298 305 307 309 311 313 313 315
307 306 304 308 312 310 302 289 289 294 297 295 297 296 294 297 298 299 299 298 301 302 295 295 294 302 304 305 305 300 297 301 294 294 293 295 297 303 304 305 307 307 310 312 313
304 300 300 308 311 304 294 290 294 299 300 300 292 298 293 293 295 297 297 300 300 303 305 300 294 300 304 306 304 303 304 295 297 286 285 292 293 295 299 301 304 305 308 312 315
301 292 303 309 310 295 286 291 296 302 303 299 296 296 295 294 295 296 296 298 302 302 304 302 299 297 302 300 299 300 299 299 299 296 289 287 292 302 301 303 305 307 309 311 314
297 286 306 309 289 291 288 295 298 299 304 301 300 299 298 295 295 295 296 299 303 304 299 303 300 294 296 303 304 304 301 301 294 292 295 294 293 305 306 307 306 308 310 312 314
291 292 307 305 283 284 293 294 297 298 298 300 298 300 302 299 293 297 298 303 303 303 301 303 297 292 293 297 302 299 301 301 300 298 294 292 293 304 306 306 308 308 309 311 313
292 285 293 295 297 290 289 290 292 299 299 301 299 301 298 297 301 295 297 300 303 303 303 304 299 295 291 294 298 296 298 300 299 294 294 294 296 301 304 305 307 308 309 310 311
292 289 294 284 288 291 291 292 290 291 298 301 299 298 298 295 296 296 297 300 300 300 303 304 296 298 298 298 298 297 297 298 297 297 294 297 297 301 304 306 308 307 306 306 308
288 291 296 292 293 291 290 290 290 293 296 295 296 298 299 296 297 295 298 300 300 302 302 304 296 298 295 298 297 295 298 298 299 299 299 299 298 305 307 307 305 305 305 307 309
298 299 296 292 291 289 290 289 291 295 298 299 299 297 296 298 302 302 303 303 302 300 301 301 298 296 292 296 296 291 296 298 300 301 301 297 301 305 305 305 305 305 307 307 309

GFSSW_sfc_thetae_069.txt.gz
Theta_e
322 323 324 325 324 322 321 320 319 319 319 319 319 318 318 318 317 318 315 317 316 323 317 317 315 315 315 311 311 311 302 298 300 300 302 309 308 318 320 317 320 324 324 332 333
319 320 320 322 323 322 321 320 319 319 319 319 319 318 318 317 317 314 318 323 323 323 317 313 311 314 311 310 310 307 302 301 305 306 304 306 309 313 314 314 315 321 327 331 332
315 316 317 318 321 322 321 320 319 319 319 319 318 318 317 317 314 313 326 323 323 323 318 316 314 311 308 311 309 307 302 306 306 307 309 307 309 316 313 309 317 317 324 327 328
314 314 315 317 319 320 320 319 319 320 320 319 319 318 317 318 301 319 328 327 325 318 317 313 311 307 306 306 310 303 308 308 308 309 310 308 314 312 313 317 321 325 326 326 325
314 315 314 315 317 318 318 319 319 319 319 319 319 318 316 310 310 321 328 329 320 318 314 311 308 307 305 307 307 306 308 310 311 311 312 312 311 311 313 321 325 325 325 324 323
313 314 314 314 316 317 317 317 318 318 318 318 318 316 312 303 314 316 319 323 320 317 313 312 311 312 309 307 306 311 310 310 311 311 312 310 311 313 318 322 322 322 323 323 322
313 313 313 314 314 315 316 316 317 317 318 318 317 316 310 308 317 318 318 318 319 316 312 315 315 312 312 307 311 310 306 309 309 311 309 311 306 307 319 321 321 320 322 322 323
313 313 312 313 313 314 314 315 316 317 317 317 316 316 308 317 318 314 317 319 320 319 316 317 317 314 311 312 308 305 306 300 305 310 310 309 300 305 319 320 318 320 320 320 318
312 312 312 311 312 313 313 314 316 318 317 316 316 314 306 314 310 313 314 313 318 318 319 317 316 311 311 304 301 303 297 300 303 309 308 307 303 308 317 318 317 319 318 319 319
312 311 312 311 312 312 312 314 317 316 316 318 316 308 310 307 312 313 314 314 314 315 313 312 310 306 307 303 295 296 298 299 299 306 307 304 304 308 314 316 317 318 319 318 319
312 311 311 312 312 312 314 318 312 312 314 306 307 304 306 311 316 312 314 312 313 312 305 309 304 301 304 306 304 302 301 300 303 306 303 302 305 306 313 315 314 316 317 318 318
312 311 311 311 312 313 316 310 310 313 303 309 309 309 313 313 307 310 316 308 307 304 307 306 301 307 307 304 302 302 300 300 304 305 304 303 302 305 311 314 315 316 317 316 319
311 311 310 311 312 312 313 313 319 317 305 303 306 306 307 310 306 308 312 309 305 303 304 302 305 308 305 303 301 302 301 301 300 304 305 303 300 303 308 313 315 316 318 318 318
310 310 309 310 306 311 311 318 320 320 298 297 304 307 307 308 303 311 313 309 306 302 304 303 307 305 304 302 304 299 305 303 302 300 293 304 293 301 305 307 312 314 317 318 319
310 310 309 308 307 309 315 322 322 316 282 300 303 312 308 304 304 305 314 308 303 303 304 300 303 303 301 302 305 301 305 303 303 301 300 299 295 299 304 302 307 313 316 318 320
308 309 309 307 309 309 317 320 318 296 283 296 304 301 302 303 303 306 307 311 309 304 304 303 308 306 305 306 306 306 303 304 304 302 294 298 297 297 300 302 306 310 314 317 319
308 308 308 308 303 313 315 311 294 286 296 294 299 302 301 299 300 303 302 301 299 296 297 301 302 306 307 303 306 305 301 294 292 292 292 300 296 299 304 306 307 308 312 315 318
307 308 307 306 311 312 307 298 286 292 293 301 300 302 297 300 298 301 300 299 303 301 298 295 293 302 306 304 302 302 302 295 287 289 292 298 292 298 306 307 308 310 312 315 317
307 306 304 309 312 310 297 286 288 293 297 296 299 298 296 299 298 299 299 299 301 303 297 296 296 305 306 306 306 302 299 304 297 297 293 296 300 304 305 305 307 307 309 312 315
302 302 301 310 312 306 291 288 293 297 298 299 293 299 295 296 295 296 298 301 301 304 306 301 295 302 304 306 306 304 307 297 298 288 287 293 295 297 301 303 305 306 308 311 316
300 294 303 310 309 297 285 291 295 299 300 298 297 295 298 297 297 295 297 301 303 303 305 304 300 299 303 300 299 300 300 301 301 297 291 289 294 304 303 304 304 307 308 310 312
297 288 304 311 289 291 287 293 297 297 301 301 302 301 298 299 297 295 295 300 304 305 300 304 301 295 298 304 305 305 301 302 295 293 297 295 295 307 307 307 308 308 309 311 313
292 293 306 306 285 287 293 293 296 296 297 299 299 301 303 301 295 298 298 303 304 304 302 304 298 293 295 299 303 301 303 303 303 301 295 294 295 307 307 307 308 308 310 311 313
292 286 294 297 297 292 290 290 291 297 297 299 300 302 301 300 303 297 298 301 306 305 304 305 300 296 292 295 300 297 299 302 301 297 296 296 297 302 304 305 308 309 311 311 312
292 290 295 285 288 293 293 292 290 290 296 299 297 300 299 296 298 298 299 301 302 303 305 304 297 298 299 300 300 299 298 299 298 299 296 298 298 301 304 305 307 310 311 310 310
288 292 294 294 294 292 292 290 290 292 293 293 295 298 300 297 299 297 299 299 299 303 303 305 297 299 296 299 299 297 298 299 299 299 299 299 298 306 308 308 307 308 309 308 310
297 301 297 292 292 290 292 292 291 293 296 297 297 297 298 301 305 304 303 301 302 303 302 302 300 297 293 298 298 294 297 298 299 301 301 297 302 306 305 306 307 308 309 309 312

GFSSW_sfc_thetae_075.txt.gz
Theta_e
316 316 316 317 317 319 320 320 320 320 321 321 321 321 321 320 318 313 306 315 317 325 319 313 307 306 305 303 303 301 289 288 292 295 297 306 301 309 308 307 312 313 311 317 329
315 314 315 315 315 317 318 318 318 319 320 321 321 321 320 319 314 309 317 325 324 324 310 309 307 307 301 301 301 295 288 292 299 300 299 303 300 308 307 307 309 311 315 327 328
314 314 313 314 315 315 315 316 316 318 319 320 320 320 319 317 309 311 323 325 325 321 309 309 310 306 301 300 299 298 293 298 300 303 301 301 301 309 306 304 311 310 315 325 323
314 314 314 313 314 315 314 313 315 317 317 319 320 320 319 314 297 312 326 325 324 312 308 307 306 302 299 296 301 297 301 301 301 305 305 302 303 303 312 311 315 320 325 324 320
313 313 313 313 314 314 314 313 314 315 316 318 320 320 314 308 308 318 329 326 315 309 307 306 304 303 298 299 300 301 302 304 306 306 306 308 302 303 309 314 322 324 323 321 320
313 313 312 312 313 313 313 313 312 314 315 316 318 318 311 301 316 316 320 319 314 310 307 307 307 307 302 302 300 303 303 303 305 305 307 305 305 305 308 313 315 320 318 318 317
314 313 312 312 312 312 313 313 312 312 314 316 318 317 309 305 313 313 313 312 317 314 309 310 311 305 304 302 306 304 299 300 303 303 302 303 301 301 309 313 310 312 317 316 317
313 313 312 312 311 311 311 311 311 312 313 315 318 313 303 314 313 314 313 312 312 316 314 313 312 306 305 306 304 300 297 292 299 304 305 303 295 306 311 309 309 314 315 314 314
312 312 312 311 310 310 310 311 311 312 314 315 313 308 302 316 309 311 312 309 311 311 312 314 309 304 304 298 294 296 291 293 297 304 303 301 297 306 310 310 309 310 311 311 312
311 312 312 312 311 310 309 310 311 312 314 317 315 303 308 305 309 311 312 311 307 309 308 306 302 298 296 293 288 292 293 297 295 301 303 299 300 304 308 309 308 309 309 310 311
311 311 311 311 311 310 308 304 303 303 308 306 305 302 304 311 313 307 310 307 304 303 299 302 295 293 294 298 299 299 298 293 296 301 299 298 298 301 305 306 306 307 308 311 311
311 310 311 311 311 310 306 299 304 305 298 309 310 309 310 312 305 307 310 301 299 294 301 299 294 300 302 301 300 300 295 293 297 303 300 295 295 299 302 306 308 309 309 311 312
310 310 310 310 310 305 300 301 308 305 297 301 305 302 304 306 303 303 307 303 297 294 296 296 299 303 301 299 299 297 295 295 296 300 299 296 294 297 302 306 309 311 312 313 312
310 310 309 309 303 302 301 310 310 311 292 293 298 300 303 302 299 307 308 303 298 294 297 297 302 301 300 299 300 294 301 301 299 294 288 297 286 296 301 303 307 310 310 311 313
309 310 309 309 301 298 305 307 309 310 275 293 297 307 303 298 300 301 307 304 296 296 297 295 298 299 298 300 302 297 303 301 299 294 292 293 292 293 299 300 303 309 310 312 313
308 309 309 303 302 303 306 308 306 290 279 292 301 300 298 298 298 301 300 304 304 298 298 297 302 301 300 303 303 304 300 298 297 293 286 294 293 291 294 299 303 308 311 312 312
308 309 307 305 294 305 307 302 287 281 292 289 295 299 298 295 295 297 295 295 293 290 291 296 297 301 303 298 301 299 294 286 284 283 284 297 294 294 300 302 303 306 311 311 313
308 308 306 305 303 303 302 293 280 286 287 296 295 296 294 297 295 295 294 291 297 295 291 289 288 297 302 299 297 295 295 287 282 282 288 297 291 293 303 304 303 304 311 313 313
307 303 302 304 303 300 295 283 282 286 292 290 291 288 292 296 296 294 293 293 296 298 290 289 290 300 301 302 301 297 292 299 293 293 288 291 295 301 302 300 302 301 303 308 314
301 299 298 305 304 299 289 283 286 292 292 292 286 290 286 292 293 293 293 297 296 299 301 296 291 299 300 301 301 298 301 291 292 284 283 289 289 291 297 300 300 299 301 304 307
300 293 300 306 304 291 282 284 288 293 293 290 288 288 290 290 292 292 293 297 298 298 301 298 294 294 299 296 295 296 294 296 296 292 283 281 286 298 299 300 299 300 303 304 306
297 286 301 304 289 288 283 287 291 291 293 292 291 290 290 291 290 290 294 295 300 300 296 297 296 290 293 300 302 300 296 296 289 289 290 286 287 302 301 301 301 301 303 304 308
290 291 301 300 283 284 288 288 289 289 290 290 289 292 293 291 289 294 298 301 300 299 296 298 293 287 290 295 299 296 297 298 297 295 289 283 288 304 303 300 302 301 302 303 305
289 284 292 295 293 288 285 286 286 292 290 292 291 292 290 290 295 291 293 302 301 300 302 301 296 291 286 291 297 293 296 297 295 287 289 290 293 298 301 300 301 300 302 303 304
290 286 291 284 287 288 288 287 286 286 291 292 289 289 289 287 291 290 296 298 301 301 300 299 291 294 295 297 298 296 296 295 293 295 292 294 295 299 299 299 301 303 304 305 305
286 288 292 289 289 288 288 287 286 288 289 288 287 289 290 287 292 289 294 296 295 298 296 298 291 294 292 296 296 295 296 296 296 297 295 295 296 302 301 300 301 303 305 305 305
296 296 293 289 288 285 286 287 288 291 292 292 291 289 287 290 298 300 302 300 299 297 295 296 293 291 287 294 294 286 292 296 296 298 296 292 296 299 298 300 299 302 302 303 307

GFSSW_sfc_thetae_078.txt.gz
Theta_e
315 315 314 315 315 315 316 317 317 317 318 320 320 321 321 320 318 315 305 312 317 324 321 310 306 303 301 299 300 298 289 286 289 290 295 302 299 307 306 310 311 314 313 315 328
314 314 313 313 315 315 315 314 314 316 317 318 319 320 320 319 314 310 317 324 326 325 309 307 305 304 299 297 299 295 287 291 295 296 298 300 296 305 305 306 309 312 316 323 327
313 313 313 313 314 315 314 314 314 314 315 317 318 319 319 317 307 308 325 325 327 323 307 307 307 305 297 297 297 294 292 299 299 300 301 301 301 307 306 304 310 308 313 325 323
314 314 314 314 314 314 314 313 313 313 314 315 317 318 318 314 290 310 324 324 324 310 306 305 304 300 296 296 297 293 299 299 299 304 303 301 303 310 309 310 317 318 325 322 320
314 314 314 314 313 313 313 313 313 313 313 313 316 316 313 306 306 314 327 324 313 308 304 303 301 300 297 297 297 296 299 302 303 305 302 305 303 309 308 317 317 323 322 320 319
313 313 314 313 313 313 312 312 312 313 313 313 314 316 309 298 311 314 319 316 312 306 304 305 303 304 301 299 297 301 301 301 302 303 302 302 304 307 312 316 313 315 317 317 318
312 312 312 313 313 312 312 311 311 311 312 312 313 314 306 302 311 308 309 309 314 311 306 307 306 304 301 299 303 302 297 298 298 300 300 301 298 300 311 313 312 315 318 314 315
311 311 311 312 312 311 311 310 310 311 312 313 313 312 301 313 312 311 312 310 311 312 312 312 310 305 301 303 301 298 295 290 298 299 302 301 293 305 310 311 309 315 315 313 314
312 311 312 311 311 311 310 310 310 311 312 313 309 308 300 315 309 311 310 307 309 310 310 314 308 301 302 295 292 293 289 291 295 300 301 299 295 303 309 311 311 312 310 309 310
312 311 311 311 310 310 310 309 309 310 310 313 314 301 305 301 307 308 308 309 306 306 304 304 300 296 294 291 286 289 290 294 293 297 300 296 296 302 306 307 308 307 308 308 309
311 311 311 310 310 309 307 302 301 301 304 303 305 301 302 307 312 307 308 307 304 301 296 300 293 291 293 295 296 295 294 293 296 299 299 297 296 298 304 305 304 305 307 307 309
310 311 310 310 310 309 304 297 300 302 294 302 304 307 310 311 304 307 308 300 298 293 299 297 293 297 299 298 297 296 294 293 297 300 298 295 293 296 304 305 306 306 307 307 309
309 310 310 309 309 303 299 299 306 307 294 298 303 303 305 307 303 304 305 300 296 293 294 293 297 301 299 297 296 296 293 294 293 297 296 294 292 295 301 305 308 309 309 310 310
308 309 309 308 301 301 298 305 305 307 288 291 297 299 302 302 297 305 305 302 296 293 294 293 299 299 298 296 297 292 299 298 297 293 287 294 285 293 297 302 306 308 308 310 311
308 309 309 308 298 296 302 304 307 305 271 290 295 304 302 295 297 299 305 302 295 294 294 292 296 296 295 297 300 295 301 299 298 293 289 290 288 292 297 298 303 307 309 310 312
308 308 309 303 299 300 302 303 307 288 275 289 297 295 294 296 297 299 299 302 302 296 295 294 299 298 299 301 301 302 298 296 295 292 285 291 290 289 292 297 303 307 309 310 311
308 308 306 304 293 299 301 300 288 280 292 287 294 294 295 292 294 295 294 293 291 289 289 292 294 297 299 296 298 298 292 284 283 282 283 294 291 293 298 299 304 307 308 310 312
307 307 304 303 300 299 300 292 280 286 287 293 291 291 288 292 293 294 292 289 294 293 290 287 285 294 299 296 295 294 293 285 281 281 285 295 289 292 300 302 303 307 311 311 311
307 299 297 300 302 298 292 281 281 285 289 289 290 287 288 292 292 292 291 290 292 294 289 288 288 297 299 300 299 294 290 297 290 290 285 289 293 298 298 298 299 302 310 310 311
300 298 297 301 303 295 287 282 284 290 291 290 283 288 285 287 288 289 289 295 293 296 298 293 287 296 298 299 299 297 299 290 290 283 282 287 288 290 295 296 298 299 305 309 310
299 292 299 304 303 292 280 283 286 290 291 288 286 285 286 286 289 289 289 293 296 296 297 296 291 291 296 293 292 294 293 294 294 291 283 281 286 295 297 299 297 298 301 305 310
296 286 301 303 288 288 282 284 290 288 292 290 289 287 286 288 287 287 287 293 300 299 292 296 293 288 291 297 298 298 296 295 287 287 288 285 288 298 299 299 298 298 302 302 305
291 290 301 299 282 284 288 287 287 287 288 289 288 290 291 288 284 291 292 298 298 299 295 295 291 284 288 293 296 294 295 296 296 293 288 283 287 301 299 299 300 298 300 302 304
287 284 291 294 291 287 285 285 285 290 287 288 288 290 288 286 290 288 292 296 300 300 301 300 293 290 285 289 293 292 295 297 295 287 288 288 291 297 300 300 301 299 299 301 302
287 285 291 283 286 287 287 287 285 284 290 291 287 286 285 283 286 286 292 295 297 300 300 298 289 292 293 295 296 294 294 295 294 293 289 292 292 296 299 300 301 301 301 302 302
285 287 291 286 289 287 287 286 285 286 286 285 285 288 288 284 286 285 292 293 293 297 296 297 288 291 289 295 295 293 295 296 295 294 293 295 293 301 302 300 299 301 302 301 302
295 293 292 288 287 286 285 285 287 288 290 290 289 288 286 288 292 293 297 299 298 294 292 293 291 288 284 293 293 286 292 296 295 296 295 290 294 299 299 298 298 299 301 302 303

GFSSW_sfc_thetae_081.txt.gz
Theta_e
315 314 314 313 313 314 314 314 314 313 313 314 316 318 319 319 316 313 304 310 315 325 320 306 304 301 299 296 297 295 289 285 288 288 292 299 298 305 306 309 310 313 313 313 327
314 314 313 313 314 314 314 314 314 313 313 314 315 317 318 316 312 308 315 323 325 324 307 306 303 302 298 296 296 292 287 289 294 293 295 298 294 304 304 306 307 310 316 317 326
314 314 313 313 314 314 314 314 313 313 313 314 314 316 315 315 305 300 323 325 328 322 305 306 305 303 296 296 295 292 291 295 297 297 297 298 298 306 304 300 308 308 310 322 320
312 312 313 313 314 314 313 313 313 312 312 312 313 315 315 312 287 306 326 326 326 312 304 302 301 298 295 293 295 291 296 296 297 300 299 298 303 309 306 308 314 314 318 321 317
312 312 312 312 313 314 313 312 312 312 312 312 313 314 312 303 304 311 326 322 312 304 301 301 300 299 295 295 296 294 296 298 301 301 301 303 302 308 308 314 320 323 322 320 318
311 312 313 311 312 313 313 312 312 312 312 311 312 313 308 296 307 310 312 315 309 303 302 302 300 301 299 298 295 298 298 299 299 300 300 303 306 304 307 315 312 315 315 316 315
312 311 311 311 312 312 312 312 311 311 311 311 311 310 304 299 307 308 310 306 309 308 303 304 304 301 301 298 301 299 295 297 297 297 299 300 297 300 306 315 312 313 315 313 314
311 311 311 311 311 311 310 310 310 311 311 311 311 309 299 311 310 310 309 308 311 309 307 309 307 302 301 301 299 296 293 289 294 298 300 298 291 299 310 308 307 313 312 310 311
312 312 311 310 310 310 309 309 309 310 311 311 307 305 297 313 307 311 310 305 307 309 308 312 307 302 300 294 290 291 286 289 294 298 297 297 293 299 306 307 307 311 308 307 309
310 311 311 310 310 309 308 308 309 310 309 311 311 299 302 300 305 308 308 307 303 304 303 301 299 295 293 291 284 286 288 291 291 294 297 295 296 300 304 307 308 308 307 306 308
310 310 311 311 310 309 305 300 298 297 301 299 301 300 303 308 313 307 308 305 302 300 294 298 293 291 293 293 294 293 291 289 294 298 295 295 296 297 302 303 303 305 305 305 306
309 310 310 310 310 309 301 296 299 300 293 302 302 301 305 308 301 305 309 300 298 292 296 294 292 296 297 296 295 293 291 291 294 297 296 294 294 295 301 303 304 305 305 305 305
308 309 309 309 309 301 298 298 305 304 294 297 301 300 301 303 299 300 306 300 295 292 293 291 295 300 297 295 294 293 291 291 291 295 295 293 291 293 300 303 305 306 308 307 307
308 308 308 308 298 299 295 302 302 304 286 289 295 298 301 302 297 305 306 301 296 293 292 291 297 297 295 294 295 290 296 296 294 291 287 292 284 291 295 300 304 306 306 306 308
307 308 308 309 297 294 298 302 302 302 271 289 295 304 301 294 293 298 304 300 294 293 292 290 292 293 293 296 297 294 298 296 295 292 288 289 287 289 295 296 300 305 307 307 309
307 308 307 302 299 300 301 300 304 286 275 286 295 294 294 295 295 298 298 299 300 295 293 292 297 296 296 298 299 300 296 294 293 290 283 289 288 287 290 295 301 305 307 308 309
307 307 305 303 293 299 300 297 286 278 290 287 289 291 290 291 293 293 292 291 290 287 288 291 292 295 298 294 297 296 290 283 281 281 282 291 289 291 295 298 302 305 307 309 310
306 306 303 303 300 299 295 289 279 285 286 292 290 290 286 292 293 293 290 287 292 292 288 286 284 292 295 295 292 292 291 284 280 280 283 292 287 292 299 300 302 307 309 310 309
306 298 299 299 300 297 288 279 279 285 289 286 288 285 286 289 290 291 290 289 290 292 288 286 286 295 296 297 297 292 288 295 287 287 283 288 292 297 297 297 299 302 306 307 309
299 297 295 300 300 296 285 279 282 289 289 288 282 285 282 284 285 288 289 293 291 296 295 292 286 294 296 297 298 295 297 288 288 281 281 285 286 289 294 295 296 299 305 307 309
296 291 297 301 300 291 279 279 284 288 289 287 285 283 284 283 285 287 288 292 296 296 299 293 290 290 294 291 291 292 291 291 292 288 282 280 284 294 296 297 296 297 305 307 309
295 285 299 301 287 287 281 283 289 287 291 288 288 286 284 285 284 285 286 290 297 297 292 296 291 286 289 295 296 295 293 294 286 285 286 285 287 297 298 298 298 297 300 307 310
290 290 300 298 281 282 286 286 286 285 287 287 287 288 288 284 281 285 287 296 298 296 293 296 289 282 286 291 295 292 293 294 293 291 286 283 286 298 298 298 298 296 297 300 305
287 283 291 293 290 284 284 285 285 289 286 287 287 288 286 284 287 285 287 294 299 298 300 299 292 288 283 286 291 289 293 294 294 285 286 289 291 295 297 298 300 299 298 298 301
289 285 290 283 285 287 286 286 285 284 288 288 285 284 283 280 283 283 286 289 296 298 296 296 287 290 291 292 294 293 292 293 291 291 288 290 292 297 298 298 299 301 299 299 300
285 286 291 285 288 286 286 285 284 286 286 285 285 287 286 282 283 282 286 286 290 295 292 294 287 290 288 291 293 292 294 294 293 293 293 292 293 299 299 299 299 300 299 300 301
295 293 290 287 286 285 285 285 286 287 289 289 288 286 285 287 290 290 290 291 293 293 288 287 288 285 283 291 292 286 291 294 294 294 293 289 294 299 298 298 299 299 299 299 300

GFSSW_sfc_thetae_084.txt.gz
Theta_e
314 314 314 314 314 313 313 314 314 312 313 314 314 314 315 315 314 311 300 307 313 324 317 306 302 300 298 296 296 294 288 284 287 288 293 296 295 302 305 306 309 312 312 313 321
314 314 314 314 315 314 314 314 313 313 313 313 313 314 315 314 309 306 313 323 325 325 306 304 301 301 297 294 295 292 286 288 293 293 294 297 294 297 303 303 306 309 315 315 326
312 312 312 312 313 314 314 313 313 313 313 313 313 314 314 314 301 297 323 324 325 323 304 305 304 302 296 295 294 291 290 293 295 296 295 295 295 304 302 300 306 306 310 315 322
311 311 311 311 312 312 313 313 313 312 312 313 312 313 314 312 287 301 325 326 327 313 302 300 300 297 294 292 294 290 295 294 296 297 297 296 299 305 303 304 313 312 315 321 319
311 310 310 311 311 311 312 313 313 312 312 311 312 312 309 299 300 309 325 321 311 304 300 299 298 297 294 294 294 292 295 297 298 299 298 300 299 303 306 310 320 322 320 319 319
312 311 310 310 310 310 311 311 311 311 311 311 311 312 304 290 303 307 308 312 306 301 300 300 298 300 297 296 295 296 296 297 298 297 298 299 301 304 304 314 312 316 315 318 318
312 312 311 310 310 310 310 310 310 310 310 310 311 308 301 294 303 305 307 305 304 305 301 302 302 299 299 296 299 297 293 295 295 294 297 298 295 300 305 314 311 311 313 314 313
309 310 311 311 311 310 310 309 309 309 310 310 310 306 296 309 308 308 307 306 308 306 305 306 305 300 298 299 298 293 292 287 292 295 297 297 291 297 308 311 310 310 311 310 310
309 310 310 310 310 310 309 309 309 310 310 310 305 302 293 311 306 307 309 305 305 306 306 310 305 299 298 293 289 290 285 286 292 296 295 295 292 295 306 307 305 306 309 307 311
308 309 310 309 310 310 309 308 308 309 308 309 309 294 295 295 306 308 308 307 302 303 302 301 299 294 292 289 283 286 287 289 289 293 294 292 294 297 303 305 303 306 306 305 306
308 308 309 309 309 309 305 300 295 294 298 296 296 297 300 309 311 306 305 303 301 298 293 296 291 289 292 292 292 291 290 288 291 294 293 292 291 295 299 302 302 304 304 304 304
307 307 308 308 308 309 300 296 297 298 291 298 299 299 303 306 298 300 307 298 296 292 295 292 289 295 296 295 293 292 290 289 292 295 294 293 292 295 296 300 303 303 304 304 304
306 306 307 308 308 300 295 298 302 301 293 295 299 299 300 301 296 296 301 299 295 292 293 291 293 298 295 293 292 291 290 289 289 293 293 290 289 292 296 301 303 304 306 306 304
307 307 308 308 298 297 293 300 301 300 286 287 294 296 300 300 294 301 302 299 295 291 292 291 296 295 293 293 293 288 294 293 292 289 285 291 283 289 294 295 301 303 304 306 305
307 306 307 307 298 294 295 301 301 302 273 287 294 302 299 294 293 298 303 299 291 292 292 289 291 292 291 293 295 292 296 294 293 289 287 287 285 288 292 294 297 301 304 306 307
305 306 307 301 297 298 300 300 300 285 274 286 295 294 293 295 294 297 297 298 298 293 291 291 295 294 293 297 297 299 294 293 291 289 282 287 287 286 289 294 297 300 304 306 307
306 306 304 303 293 299 299 295 285 276 288 286 288 290 290 291 292 293 292 290 288 285 286 290 291 293 297 292 295 295 289 282 281 281 281 289 287 290 294 296 298 299 303 306 308
305 305 302 302 300 300 295 286 278 284 285 290 288 289 287 288 291 293 289 286 290 290 285 282 281 290 294 293 291 291 290 282 280 279 282 290 285 290 298 299 300 300 303 306 307
304 296 297 298 300 298 288 275 279 283 287 285 286 284 285 286 288 290 290 289 291 291 286 285 284 294 295 296 296 290 288 293 285 285 283 286 290 296 298 297 297 297 304 305 306
294 294 293 299 301 295 285 278 279 288 288 287 281 284 279 282 282 284 287 292 292 296 297 289 285 293 294 294 294 292 295 287 286 280 280 283 285 288 294 296 295 296 302 304 306
295 289 297 300 298 290 278 278 284 288 287 285 284 282 282 282 283 283 284 290 294 294 296 294 287 287 292 290 288 290 289 289 290 286 281 280 283 293 296 297 297 296 300 303 305
293 284 296 300 286 286 281 283 288 286 289 286 287 285 282 283 282 282 284 288 294 296 291 295 290 283 287 293 295 292 290 291 286 283 284 283 286 295 296 297 297 298 298 302 306
288 288 297 296 280 281 285 285 286 284 285 286 285 287 287 283 279 283 284 292 296 296 292 293 289 283 284 289 293 289 291 292 291 289 285 283 285 297 297 297 298 298 298 298 303
288 282 289 292 287 282 281 282 282 288 285 286 286 286 285 282 286 283 284 289 292 290 300 296 289 287 283 286 291 288 290 292 291 285 286 288 288 293 295 297 297 298 297 297 299
289 284 288 278 284 284 283 283 281 283 287 286 283 283 282 279 280 280 284 285 288 292 295 294 285 288 290 291 291 291 291 291 290 290 286 288 290 294 296 298 299 300 299 298 297
285 285 288 288 285 285 285 282 282 284 285 283 282 286 284 281 282 281 284 285 285 292 291 292 284 286 286 288 290 289 292 292 292 291 290 290 289 296 299 298 296 299 300 299 298
292 293 289 286 284 284 283 284 284 286 288 289 287 286 284 286 288 289 289 289 288 286 287 289 287 284 281 286 288 284 288 292 292 292 292 288 292 296 296 297 297 299 299 299 300

GFSSW_sfc_thetae_090.txt.gz
Theta_e
313 313 313 313 313 313 313 313 314 313 314 314 314 314 314 315 313 312 306 310 315 325 323 319 314 313 314 310 311 310 301 298 299 299 302 306 305 310 313 312 314 317 319 321 327
311 311 312 312 312 312 312 312 312 312 312 313 313 314 314 314 311 306 316 320 321 325 315 312 308 311 308 307 308 305 301 301 304 305 304 306 307 308 307 309 311 314 321 323 328
312 312 312 312 311 311 311 311 311 311 311 311 312 313 313 313 305 303 324 325 324 323 315 313 311 308 305 307 305 304 300 304 304 306 307 306 307 309 307 306 311 311 315 322 326
312 312 312 312 312 311 312 312 311 311 310 310 310 311 313 312 294 312 324 326 326 319 313 312 309 305 304 303 307 301 304 304 306 307 306 305 309 307 308 309 314 319 320 321 324
310 310 310 310 310 310 311 311 311 311 311 311 311 310 309 302 299 310 321 324 322 316 311 310 308 307 303 305 306 303 304 306 306 306 306 307 306 306 307 311 315 320 319 321 324
310 310 309 309 310 310 310 310 311 311 311 311 311 309 305 295 305 310 312 315 313 314 312 310 307 309 305 304 303 305 305 305 306 306 307 305 305 307 309 316 316 320 321 324 324
310 310 310 309 309 309 309 310 309 310 311 312 312 309 302 298 307 312 311 310 314 310 308 311 311 306 306 303 307 305 301 303 304 306 305 307 302 304 311 316 316 320 322 322 322
309 309 309 309 309 309 309 309 308 310 311 311 311 308 299 306 310 308 308 306 308 310 310 311 311 308 306 307 304 301 302 298 302 303 305 306 300 308 311 313 314 317 319 320 321
308 309 309 309 308 309 308 308 309 309 310 310 307 304 296 307 303 309 309 304 307 306 311 312 311 305 305 300 298 300 296 298 300 304 303 304 302 308 312 312 312 316 318 319 320
307 308 309 308 308 308 308 308 310 309 311 311 308 299 301 296 307 312 315 313 308 304 304 306 305 302 301 298 291 296 296 297 297 302 303 302 303 308 310 310 312 315 318 319 319
307 307 307 308 307 308 307 308 301 301 301 298 298 298 299 305 309 309 312 310 307 302 295 303 298 296 298 299 300 299 298 296 300 302 300 300 301 305 309 309 311 313 315 318 319
307 307 307 307 307 307 307 301 297 299 292 300 300 299 302 304 297 302 310 304 302 297 299 299 295 300 301 301 299 298 296 296 300 302 300 300 300 306 308 309 311 312 315 317 319
306 306 306 307 306 306 302 301 305 304 293 296 300 299 300 303 296 297 302 305 301 298 296 296 298 301 299 298 296 297 296 297 296 300 302 299 298 302 307 309 311 313 315 317 319
305 305 306 306 302 303 301 305 306 306 289 292 296 300 303 301 296 303 304 300 301 296 298 296 300 298 297 296 297 293 300 298 297 296 292 299 290 300 304 305 308 310 314 316 319
304 304 305 304 301 299 301 306 307 303 278 291 296 307 303 298 299 300 305 299 293 297 298 295 296 296 295 296 297 295 300 298 298 297 296 295 292 299 303 301 305 309 312 316 319
305 304 304 302 304 303 307 307 305 288 277 288 297 295 295 297 297 300 299 302 299 294 297 298 300 299 298 300 300 301 299 298 298 297 289 293 293 296 300 302 305 308 311 315 318
305 304 303 303 298 307 307 300 286 279 289 287 290 292 292 292 295 296 295 295 292 286 287 292 294 298 300 296 299 299 295 289 288 288 287 295 294 297 303 305 307 308 310 315 318
305 303 303 302 305 306 302 290 279 283 286 292 290 291 289 289 291 294 293 291 296 294 291 286 284 292 298 296 295 295 295 291 284 287 290 296 291 297 305 308 310 311 312 314 317
302 302 300 302 305 305 294 281 281 284 288 288 289 286 288 288 288 292 293 292 293 295 289 289 286 296 296 298 298 295 293 299 293 293 290 294 298 303 306 306 308 309 309 312 316
300 298 296 304 307 300 288 281 284 289 289 289 283 286 285 285 285 287 291 295 293 294 300 293 287 295 297 299 298 296 299 291 293 284 284 291 293 295 300 303 305 307 309 313 317
298 291 299 305 305 292 281 282 284 289 290 286 286 284 285 284 285 284 287 293 293 294 297 295 293 292 296 294 294 294 293 295 296 293 287 286 292 302 301 305 305 307 310 312 317
294 285 300 304 287 288 282 285 288 287 290 288 288 286 285 285 283 283 283 287 293 292 288 292 293 288 291 298 300 298 295 296 290 290 293 292 292 304 304 308 308 309 310 311 316
290 290 300 300 282 282 285 286 287 286 286 286 286 288 288 284 281 284 286 293 294 293 290 292 290 285 287 293 297 293 295 296 296 295 290 289 292 304 303 305 308 308 311 311 313
290 283 290 291 291 286 283 283 284 289 287 288 286 289 286 284 287 283 286 292 294 293 293 294 289 285 282 286 292 289 292 295 294 290 291 292 294 299 301 302 306 308 311 312 312
287 286 289 282 285 286 287 284 282 283 289 289 286 285 285 282 285 285 287 290 292 295 295 292 285 288 289 290 290 290 290 292 291 293 290 294 295 299 301 302 304 306 309 310 309
287 287 290 287 288 286 286 284 283 285 286 285 285 286 287 284 286 284 287 288 288 292 292 294 287 288 286 290 290 288 290 291 292 294 294 295 296 303 305 305 304 306 308 309 310
292 296 291 286 286 284 285 285 285 288 288 289 289 288 286 288 291 292 293 293 292 290 288 288 288 284 282 288 288 284 290 291 292 295 296 293 299 304 303 303 304 306 308 309 310

GFSSW_sfc_thetae_096.txt.gz
Theta_e
313 313 314 313 313 313 313 312 313 311 312 313 313 313 314 314 313 310 304 313 318 324 320 318 317 315 314 311 312 312 301 298 300 302 304 309 306 310 312 309 311 312 313 317 326
311 311 311 311 311 312 312 312 312 311 311 311 313 313 314 314 309 307 319 323 325 325 312 311 311 313 308 308 309 306 301 300 305 307 305 307 306 308 307 307 308 310 319 319 322
310 311 311 311 311 310 312 312 312 311 311 311 312 313 314 313 306 311 325 326 324 322 311 311 314 313 306 308 307 306 301 305 306 308 308 306 306 309 306 304 309 309 312 316 322
309 310 310 310 310 310 311 311 311 310 309 310 310 312 314 311 297 314 327 327 328 319 314 311 311 308 305 303 308 302 306 306 307 307 307 305 308 306 307 307 311 312 315 317 319
310 309 309 309 309 309 310 310 310 309 309 310 310 312 310 301 302 312 326 324 319 317 313 311 308 308 303 305 306 304 305 307 308 308 308 309 306 306 306 309 311 313 315 317 319
311 311 310 308 309 309 309 309 309 310 309 309 311 313 307 296 310 311 310 310 310 313 312 312 309 310 307 306 304 307 307 306 308 307 308 306 306 307 308 310 310 312 315 318 319
311 311 310 309 308 308 309 308 308 309 309 310 312 311 303 299 310 311 311 310 310 310 308 313 313 309 310 305 310 307 302 304 306 306 306 308 303 303 309 311 309 311 314 318 320
311 310 310 309 309 308 308 307 307 308 309 312 313 309 299 309 312 308 309 307 309 311 311 312 314 311 308 309 306 302 302 297 304 306 307 306 298 306 311 310 308 312 314 318 320
311 310 310 309 308 308 307 307 307 308 311 313 308 307 299 312 305 308 308 303 305 307 309 310 309 306 306 301 298 300 294 297 299 307 306 305 300 306 311 311 310 311 313 316 319
310 310 310 309 308 307 306 306 307 309 310 312 310 302 305 301 305 308 310 313 306 303 302 301 299 297 299 297 291 294 295 297 297 302 305 303 301 306 308 310 310 311 312 314 318
308 309 309 308 308 307 304 302 303 302 307 302 304 302 304 306 306 305 308 308 310 304 296 299 292 291 295 299 298 299 298 297 301 305 304 303 302 304 308 308 308 310 311 312 317
308 308 308 307 307 306 302 300 301 302 293 299 299 299 301 302 297 301 307 302 304 299 302 296 291 296 298 299 299 298 296 296 301 304 303 302 300 304 306 307 307 307 310 313 317
307 307 307 307 306 303 303 302 308 306 293 294 298 298 300 303 297 298 303 301 300 299 299 294 296 299 297 296 296 298 297 297 297 301 303 301 299 301 305 307 308 309 311 313 316
306 306 307 306 300 302 301 307 307 307 288 290 296 300 303 303 297 305 305 300 298 295 298 297 301 299 297 296 296 293 301 300 299 297 291 301 291 300 303 304 307 308 309 313 313
306 307 306 304 299 297 302 307 307 304 276 295 298 307 305 299 301 301 306 301 294 296 297 295 297 296 295 296 300 296 301 299 300 296 295 295 293 297 303 301 304 308 311 312 314
304 305 305 302 302 303 305 307 304 286 276 289 298 297 298 300 300 303 302 302 301 294 295 295 301 299 299 300 300 301 299 299 298 296 288 293 294 294 298 302 305 308 310 315 314
304 304 303 303 296 305 307 300 284 278 291 288 292 296 296 296 297 297 297 296 292 287 288 292 293 299 301 297 300 298 295 288 286 287 286 297 294 297 303 306 307 308 311 315 316
304 303 303 302 304 305 301 289 278 285 287 293 293 294 291 294 295 296 295 293 297 295 290 286 285 292 299 297 295 295 295 289 282 285 289 298 292 297 305 307 309 311 313 314 316
302 301 301 303 306 303 292 281 281 285 290 289 290 288 289 293 293 295 295 294 296 297 290 289 289 297 298 300 299 295 292 298 292 293 288 292 297 304 305 306 308 308 310 313 315
298 297 297 306 307 299 285 282 285 290 291 290 285 289 286 290 290 291 293 297 295 297 299 296 289 295 297 299 299 296 299 291 292 284 282 289 291 294 301 303 307 307 309 312 315
295 290 299 307 303 292 281 283 287 291 292 287 287 286 288 288 289 289 291 296 298 296 297 297 293 293 294 292 291 292 291 293 293 292 285 285 290 302 302 304 306 308 311 312 316
292 287 303 303 288 288 283 287 291 290 292 289 289 289 288 289 288 288 288 292 295 294 290 295 291 289 292 298 300 298 293 293 287 287 292 290 290 304 305 305 306 307 309 314 315
289 290 303 301 283 284 288 287 289 288 288 287 286 289 290 287 285 288 289 294 296 294 291 293 290 285 288 293 298 294 297 296 295 294 289 287 290 305 305 304 308 306 308 310 315
290 284 291 293 292 287 285 286 285 290 289 289 288 289 287 287 289 287 287 291 295 294 297 295 289 287 285 287 292 291 294 296 295 290 290 291 293 299 301 302 305 306 308 309 310
290 286 290 285 286 287 287 287 285 284 289 289 286 286 286 283 285 285 288 289 291 295 293 293 284 287 288 290 290 289 290 292 291 293 289 292 294 298 301 301 303 305 307 307 307
287 287 289 287 289 286 287 285 284 287 287 286 285 287 287 284 285 283 287 288 288 291 291 294 286 288 285 288 288 287 289 290 291 291 291 293 293 301 302 303 303 304 305 305 306
294 294 290 286 286 285 285 286 285 288 289 291 289 288 286 288 292 292 294 294 293 291 290 290 288 286 282 288 287 284 288 289 290 291 291 288 294 299 300 301 303 304 306 306 307

GFSSW_sfc_thetae_099.txt.gz
Theta_e
311 311 311 312 311 311 311 311 311 311 311 312 311 312 313 314 313 307 301 308 313 324 322 313 312 311 308 303 304 300 291 291 293 296 299 304 300 305 305 302 304 307 308 314 330
310 310 311 311 311 310 310 311 311 310 310 311 311 312 313 314 308 303 312 323 326 326 309 307 306 308 302 299 300 298 291 294 301 302 301 304 300 303 299 299 302 306 314 326 327
310 310 310 310 310 310 310 311 310 310 310 310 311 312 312 312 303 306 324 323 324 324 308 305 306 307 301 301 300 297 295 300 302 304 304 302 300 302 300 297 303 303 307 312 321
309 309 309 309 309 309 310 310 309 309 309 309 310 311 313 309 290 309 325 326 325 316 310 306 303 299 300 298 301 296 301 302 303 305 303 300 302 302 300 301 305 306 308 312 313
312 311 309 309 309 309 310 309 309 309 309 309 309 311 308 299 299 311 326 326 321 315 309 306 304 302 299 301 301 299 301 303 304 303 302 303 301 302 301 304 306 307 307 312 312
312 311 311 310 309 309 309 309 308 308 309 308 309 312 305 293 306 307 311 313 311 309 308 307 305 306 303 302 299 302 302 302 301 301 301 302 302 300 304 305 306 308 305 310 313
311 311 311 311 310 310 309 309 308 308 308 308 309 310 302 296 304 304 305 305 306 305 302 306 308 304 303 301 305 303 298 301 302 300 300 302 299 299 305 307 306 305 306 311 313
309 310 310 310 310 309 308 307 307 308 308 308 312 306 296 307 305 306 307 303 305 305 304 307 307 305 303 304 303 298 297 291 298 301 303 300 294 303 307 305 304 305 307 310 313
310 309 310 310 309 308 307 307 307 308 309 311 305 302 297 312 305 308 308 302 302 302 303 307 304 300 301 295 292 293 289 291 295 302 301 299 296 302 305 304 305 305 305 307 312
308 309 310 309 308 307 306 306 305 307 306 307 308 298 304 300 304 304 305 306 304 302 299 298 294 291 293 291 286 288 290 293 293 299 301 297 297 301 303 302 304 304 304 306 311
306 307 309 309 308 307 303 296 296 295 301 299 301 298 301 307 309 300 304 303 301 303 291 294 287 285 287 293 295 294 293 292 295 300 299 297 297 300 301 299 299 303 303 304 310
307 306 308 308 308 307 301 292 298 297 290 298 298 297 301 305 297 299 301 294 296 296 298 291 286 291 293 293 294 294 292 291 295 299 299 297 296 300 301 301 301 300 300 304 316
306 306 306 307 307 300 295 297 304 302 288 292 296 295 296 297 292 293 297 295 293 294 296 292 294 296 293 291 291 291 291 291 292 297 300 297 295 296 302 302 303 305 304 306 315
306 306 306 306 298 296 293 302 305 302 283 287 292 295 296 298 295 300 299 296 293 290 294 295 299 296 292 290 292 288 294 295 295 294 288 298 286 294 299 301 303 304 305 303 315
305 305 305 304 296 292 297 302 304 298 272 290 293 303 299 296 298 298 302 297 290 291 293 291 294 293 293 294 294 291 295 295 295 293 290 292 289 291 299 299 301 300 302 304 316
303 303 305 299 297 298 301 300 297 281 273 287 297 295 294 296 297 299 298 299 298 292 292 291 296 294 293 297 297 298 295 295 295 291 285 291 290 287 294 299 302 304 305 305 315
302 303 301 300 292 301 302 294 279 274 287 284 287 295 294 294 295 296 295 290 287 284 284 288 289 293 296 291 295 294 290 283 283 281 281 293 290 291 298 302 303 304 305 306 315
302 302 300 300 300 299 297 285 274 281 281 289 290 291 290 293 293 294 292 289 293 291 285 282 281 289 294 291 291 292 291 284 279 280 284 294 289 292 303 305 306 307 306 312 314
301 294 294 297 301 297 289 276 277 282 286 286 287 286 287 291 290 292 291 290 293 293 287 286 286 297 294 294 295 292 288 294 289 290 285 289 293 299 303 304 306 304 306 309 313
291 291 292 299 301 296 285 279 282 288 288 287 281 287 283 285 288 288 289 295 293 296 296 293 287 295 297 295 294 294 297 288 290 281 279 286 290 291 297 300 305 305 304 308 314
290 287 293 299 299 289 278 279 283 288 289 286 284 283 285 285 287 288 288 292 293 292 292 292 290 291 295 290 290 291 290 291 292 288 281 280 286 299 300 301 301 303 305 306 310
291 280 296 301 286 285 279 284 288 286 290 288 287 285 284 285 286 286 286 290 294 294 289 291 289 287 290 295 297 295 291 290 285 283 287 286 286 302 302 303 303 304 306 306 306
287 284 295 292 280 278 284 285 286 285 286 287 286 287 287 284 281 287 287 295 295 293 289 289 286 283 287 290 294 293 295 296 291 289 285 281 285 302 303 302 304 304 306 305 307
288 280 285 288 289 285 283 284 284 290 287 288 287 287 285 283 286 285 287 292 294 294 297 294 286 283 280 285 289 286 289 294 291 284 285 285 289 297 300 301 302 301 303 304 306
288 280 287 281 283 284 285 285 283 283 289 288 285 284 283 280 282 282 286 287 290 295 292 289 283 286 287 288 287 286 286 289 288 290 288 290 291 296 299 300 300 301 305 306 307
284 280 285 283 286 284 285 283 283 284 285 285 284 286 285 281 282 281 284 284 286 290 288 290 284 287 285 289 288 285 287 287 288 289 288 289 289 295 298 300 298 305 306 306 308
290 290 286 282 281 279 280 284 284 286 288 289 288 286 284 287 290 290 291 289 290 288 287 288 285 283 281 287 286 281 286 287 288 289 288 284 290 295 294 299 302 302 303 304 306

GFSSW_sfc_thetae_102.txt.gz
Theta_e
311 311 311 311 311 311 311 311 311 310 311 311 311 311 312 313 312 308 298 305 309 322 322 312 311 308 306 301 301 298 290 286 289 292 295 302 299 302 302 300 302 304 306 308 327
310 310 310 310 311 310 310 310 310 310 310 310 310 311 312 313 307 303 310 320 322 325 309 306 305 307 300 298 300 295 288 291 296 297 298 302 297 301 298 299 300 303 321 326 326
310 310 310 310 310 310 310 310 310 309 310 310 311 311 312 312 302 302 323 321 327 325 308 306 305 306 299 298 297 294 294 297 299 300 301 301 298 299 297 296 301 301 316 323 324
311 311 310 310 310 310 310 310 310 309 309 309 309 310 312 308 285 304 325 325 325 315 306 305 301 296 295 297 299 294 298 298 300 302 300 299 302 299 299 300 304 304 306 322 321
312 311 310 310 309 310 310 310 310 309 308 308 309 310 307 298 297 307 324 325 322 314 308 306 299 297 295 297 299 297 299 301 301 301 301 301 298 299 300 303 304 305 305 315 318
311 311 311 309 309 309 310 309 309 308 309 307 308 309 303 291 302 305 304 306 314 311 308 306 303 304 301 299 297 301 300 300 300 299 299 299 299 297 302 303 304 305 304 305 310
309 310 310 309 310 310 310 309 308 308 308 307 308 306 300 294 299 301 303 302 303 304 300 303 307 302 302 298 302 301 296 297 298 298 298 299 296 296 302 304 304 304 304 303 309
308 308 309 310 310 310 309 308 307 307 308 307 308 306 294 306 304 304 303 303 304 303 302 302 303 300 300 302 301 297 295 289 297 298 300 297 292 300 305 302 302 304 305 303 309
308 308 308 309 309 309 308 307 307 308 307 308 303 300 293 311 305 307 306 302 302 301 299 304 301 298 299 294 291 291 289 290 293 299 297 296 294 299 302 303 302 303 304 304 308
307 307 307 307 308 308 307 306 306 307 305 306 306 296 300 298 304 305 303 306 301 302 296 295 293 289 291 291 285 288 288 291 290 295 297 294 295 298 300 300 301 301 301 302 311
306 306 307 307 307 307 303 294 294 293 296 295 298 297 299 304 309 302 302 299 298 297 292 292 286 284 286 293 295 294 291 290 291 297 294 293 293 295 299 299 297 299 300 301 308
306 305 306 307 306 307 297 291 295 297 288 297 297 297 300 302 296 299 302 293 292 289 294 289 285 290 291 291 291 292 290 290 294 296 295 293 294 296 299 299 300 300 299 301 312
304 305 305 306 305 297 293 293 301 301 289 291 294 293 294 296 291 292 296 292 289 288 292 291 292 293 290 289 288 288 289 289 289 293 295 292 292 295 299 300 303 305 301 305 314
304 304 305 305 296 294 290 298 301 301 281 285 290 292 295 295 290 296 296 292 290 286 289 293 298 296 291 288 289 284 291 291 290 289 284 295 285 292 297 299 301 303 305 304 313
303 303 304 304 293 291 294 300 300 298 269 286 290 297 295 291 294 296 296 292 287 289 290 288 293 294 292 292 291 287 292 291 290 288 286 288 286 288 296 295 298 302 304 302 313
303 303 303 298 293 295 298 298 296 280 270 283 293 292 289 291 294 297 294 295 294 289 289 289 293 292 293 296 295 294 290 290 290 288 283 289 288 286 290 296 298 303 305 302 312
302 302 301 300 289 296 297 293 278 272 284 281 285 288 289 290 291 293 291 288 285 282 283 287 288 292 293 288 291 291 287 281 280 279 280 290 288 290 296 300 301 302 304 306 309
302 302 298 298 296 296 294 285 273 278 279 286 286 287 285 292 292 292 290 285 289 287 283 281 279 287 291 289 287 288 287 281 277 278 281 290 284 291 301 304 305 305 305 308 312
301 292 291 294 297 296 288 275 276 280 285 283 285 283 284 287 289 290 290 289 290 290 284 284 282 293 291 292 291 288 286 291 285 287 282 286 290 297 302 303 304 304 303 308 311
294 291 289 294 296 292 284 278 280 285 285 285 279 284 280 282 284 287 286 292 290 292 293 290 285 293 296 295 292 291 294 285 285 278 277 283 285 288 296 300 302 303 302 307 312
288 284 289 296 295 286 278 278 283 287 287 283 281 281 283 282 283 286 285 290 293 291 293 289 289 288 293 289 286 287 288 288 289 285 280 278 282 297 298 300 301 303 305 305 306
289 280 291 297 284 283 281 283 287 285 288 285 286 285 283 283 282 285 285 287 294 292 288 290 287 284 290 294 296 293 290 291 284 282 285 284 284 300 299 302 304 303 306 307 305
285 282 291 291 275 281 283 284 286 285 286 284 284 286 287 283 280 285 287 292 294 291 287 289 285 280 286 291 293 289 291 294 291 288 284 281 283 301 302 300 302 302 305 306 308
286 278 281 290 288 283 283 282 282 289 287 288 286 287 283 281 285 282 285 290 292 292 292 292 286 281 279 285 289 284 286 291 290 283 284 285 288 296 299 299 301 302 305 305 308
286 280 282 272 278 283 284 283 282 282 287 288 285 285 282 278 279 279 283 285 288 293 293 289 283 285 285 287 288 286 286 286 287 287 283 288 290 295 299 301 302 303 306 305 308
283 283 283 281 284 281 282 282 282 283 285 284 283 285 285 281 282 281 285 285 284 290 288 291 284 285 282 287 288 286 287 287 288 288 287 287 286 295 301 302 301 302 303 304 306
290 288 285 281 279 276 279 282 282 285 286 288 287 285 283 286 288 289 289 288 287 287 285 287 285 282 279 286 286 280 285 287 287 289 289 284 293 297 299 299 299 299 301 303 305

GFSSW_sfc_thetae_105.txt.gz
Theta_e
310 311 311 311 310 310 310 310 310 309 310 310 310 311 311 313 312 306 299 303 307 320 321 312 309 307 304 300 299 296 289 286 288 290 293 299 298 301 301 298 300 301 307 310 323
311 311 311 310 311 311 310 310 310 309 310 309 310 311 312 312 306 301 309 317 319 323 307 305 304 305 299 298 297 294 287 290 294 295 295 299 295 300 297 298 298 300 318 322 325
311 311 311 310 310 310 311 311 310 309 309 309 309 311 311 310 300 296 322 323 322 324 307 306 305 304 298 297 295 293 292 296 296 298 297 298 296 299 296 296 299 300 305 320 321
310 310 310 309 309 309 311 310 310 309 309 308 308 309 311 306 284 298 324 323 324 320 307 301 298 295 294 294 298 292 295 299 298 299 297 296 298 297 297 301 304 303 309 321 320
309 309 309 309 309 309 310 310 310 309 308 308 308 308 305 295 293 302 319 321 318 309 303 303 297 295 291 293 296 295 297 299 300 299 298 299 297 298 298 301 303 303 303 319 321
308 308 308 308 308 308 310 310 310 309 309 308 307 308 301 288 299 301 300 301 309 309 306 304 301 300 296 295 295 298 299 299 300 300 299 298 298 296 300 300 302 304 302 311 320
308 308 308 307 307 307 309 309 309 309 309 308 308 304 298 292 298 301 303 300 299 307 304 304 306 301 300 297 301 299 294 296 296 297 297 298 293 294 301 302 301 302 302 302 311
307 308 308 308 307 308 308 308 308 308 309 308 307 303 292 305 303 304 301 300 302 302 301 301 301 298 297 299 298 295 294 289 296 297 298 296 292 298 302 300 300 301 302 303 301
307 307 308 307 307 307 307 307 307 308 310 306 301 299 290 307 303 307 304 300 301 300 299 302 298 294 295 292 288 290 286 288 292 298 296 295 291 296 299 300 299 300 301 302 299
306 306 307 307 307 306 306 306 306 307 305 305 305 294 297 295 303 306 303 304 300 298 297 293 291 288 288 288 283 286 287 290 290 294 295 293 293 295 298 297 298 298 298 298 300
305 305 305 306 306 306 302 294 292 292 294 290 292 295 297 302 304 303 304 301 296 294 289 290 284 283 287 290 292 291 289 288 290 296 293 291 292 294 295 296 296 298 298 298 300
305 305 305 305 305 306 295 290 293 294 287 295 295 295 297 299 292 295 300 293 291 286 291 289 284 287 289 289 290 290 289 288 291 294 294 292 292 295 295 297 298 298 299 298 307
304 304 304 304 304 297 291 292 298 299 288 290 294 293 293 295 290 290 296 292 288 286 288 286 290 294 289 287 286 285 286 287 289 293 292 289 288 291 295 298 300 301 302 299 307
303 303 304 304 294 292 289 297 299 300 281 284 288 291 292 294 288 293 295 291 287 285 286 288 292 292 288 286 286 282 288 288 288 287 282 290 281 289 294 296 298 300 300 299 307
303 303 303 303 294 290 293 298 299 297 268 285 288 295 292 289 290 292 293 290 285 285 287 284 291 290 289 291 288 285 290 287 287 284 281 285 284 285 293 293 296 300 300 300 307
303 302 302 297 291 293 296 296 293 279 270 281 288 287 288 289 290 293 289 291 290 285 287 286 291 293 293 295 293 292 288 287 286 284 278 284 284 283 287 293 296 299 301 301 304
302 302 300 298 289 293 295 289 276 271 282 279 281 285 286 287 289 288 288 285 282 279 280 284 286 288 291 286 289 289 285 278 278 278 278 287 286 288 293 296 298 301 303 303 302
302 301 297 297 294 294 291 284 268 277 278 283 283 284 284 286 287 288 287 283 287 285 280 278 277 286 289 288 284 285 285 280 276 277 280 288 283 287 296 300 303 305 304 305 306
301 291 289 291 294 293 286 268 274 279 283 281 283 281 281 285 285 286 287 286 288 288 282 280 280 288 289 291 290 286 283 289 283 284 281 284 288 293 298 300 302 302 304 303 311
294 287 287 293 295 291 283 277 279 285 284 284 277 281 277 281 281 282 286 288 289 292 292 287 282 290 293 290 289 288 291 283 284 278 277 281 283 285 292 297 301 301 302 304 305
287 282 288 294 294 287 273 278 282 286 286 282 280 279 280 281 282 281 285 287 291 290 292 287 285 286 291 288 285 284 285 287 287 283 280 277 280 291 293 298 299 302 304 305 305
287 272 288 293 279 282 279 283 287 285 287 285 285 283 282 283 281 281 285 286 293 292 287 287 284 280 286 293 293 290 286 287 282 281 283 281 281 296 297 300 301 303 306 306 305
283 284 289 290 276 275 284 283 285 284 285 284 283 286 286 283 279 282 284 291 292 290 287 288 283 278 283 287 291 287 288 291 289 287 283 279 281 299 298 298 301 303 306 306 307
284 277 279 290 287 280 280 281 281 287 286 287 286 287 284 281 285 281 282 288 290 290 292 291 285 281 277 280 289 285 285 290 288 282 283 282 287 295 298 299 301 303 304 305 307
284 280 282 271 278 281 283 282 280 280 286 287 284 284 283 279 280 281 285 286 289 293 290 287 281 283 285 287 288 287 285 286 287 286 282 285 286 293 297 297 301 304 304 305 305
281 280 286 281 282 280 280 278 280 281 283 283 282 284 284 280 282 280 284 283 283 287 286 290 282 284 282 287 287 286 287 287 288 289 289 290 286 296 299 300 300 302 305 304 304
288 289 285 280 279 276 278 281 280 283 286 287 285 283 282 284 287 288 287 287 286 284 283 286 284 282 277 284 283 280 285 287 287 290 291 286 291 297 296 297 299 300 302 302 303

GFSSW_sfc_thetae_108.txt.gz
Theta_e
311 311 311 311 310 310 310 310 310 310 310 310 310 310 310 312 311 305 297 301 307 319 319 312 308 305 303 299 297 294 287 284 287 289 292 296 295 299 299 296 298 300 304 311 320
311 311 311 310 309 309 309 309 310 309 310 310 309 309 310 311 304 300 308 317 319 323 308 305 302 303 297 297 296 293 286 288 292 293 293 296 293 297 296 297 297 299 309 319 322
309 309 309 309 309 308 308 309 309 309 309 309 309 309 310 309 297 293 323 322 320 320 306 305 305 303 296 295 295 292 290 293 294 296 295 295 295 296 294 295 298 299 300 316 320
308 308 308 308 308 307 308 309 309 309 309 309 309 308 309 304 284 298 320 323 321 319 308 300 299 297 295 293 296 290 293 297 295 297 295 295 295 296 296 299 302 302 301 315 318
308 308 309 308 307 307 308 308 308 307 308 309 309 308 302 292 289 298 313 307 315 309 302 300 295 294 290 292 294 293 294 296 297 297 296 298 296 296 296 301 301 301 301 311 317
307 307 308 307 307 307 307 308 308 308 308 309 309 307 299 286 295 298 301 301 301 307 304 302 299 297 293 292 293 295 296 297 297 297 298 298 299 294 299 298 300 302 301 300 316
307 307 307 307 306 306 307 308 307 308 308 309 309 303 296 290 297 301 301 299 297 299 295 303 304 299 298 295 299 297 293 295 295 296 296 296 292 293 300 300 300 300 301 300 304
307 307 307 307 307 307 307 306 306 308 309 310 307 300 289 302 302 302 302 300 302 300 298 301 301 298 297 297 294 293 292 287 294 296 297 297 292 296 300 298 298 300 300 300 300
306 306 306 306 307 307 306 306 307 308 307 307 299 296 287 303 300 305 304 300 302 299 298 302 296 292 292 289 286 288 284 286 290 296 296 295 292 294 297 298 297 298 298 299 299
305 305 305 305 306 306 305 305 306 304 303 304 304 292 294 294 302 302 302 303 298 297 295 291 289 286 286 286 280 283 285 288 287 292 294 292 292 294 297 295 295 296 298 298 298
305 305 305 305 305 306 299 293 290 288 292 287 289 290 292 296 300 297 301 297 296 292 287 289 283 282 285 287 288 288 287 286 287 293 291 291 292 292 294 294 293 295 296 298 298
304 304 304 304 304 302 294 289 291 292 286 293 293 293 295 296 290 293 297 289 291 285 289 287 283 286 287 287 288 288 286 286 289 293 293 292 292 295 293 293 295 296 297 298 298
303 303 303 303 303 295 290 291 297 297 285 288 292 291 292 294 289 289 294 291 288 286 286 284 287 293 289 285 285 286 286 286 287 289 291 287 287 289 292 293 296 297 298 299 300
303 303 302 302 293 292 287 295 296 295 279 282 288 290 292 293 287 293 294 291 287 285 285 285 290 289 287 286 286 282 287 288 286 284 279 287 279 284 289 292 296 298 298 298 299
302 302 302 301 291 288 292 296 295 292 266 283 286 293 291 287 288 289 291 289 283 282 285 284 285 285 285 287 287 284 288 286 285 282 279 281 278 281 289 290 294 297 298 300 298
301 302 302 296 291 292 294 294 290 275 267 279 286 284 284 286 289 291 288 290 288 283 283 284 288 289 288 290 290 289 286 285 284 282 276 281 280 279 283 289 295 300 302 305 304
301 301 298 298 287 292 293 287 273 269 281 278 281 283 282 283 287 288 286 283 280 277 276 281 283 286 290 286 290 288 284 278 276 275 276 283 281 283 289 293 299 299 302 303 309
301 300 295 295 292 292 289 276 263 275 276 284 283 281 280 283 285 285 287 283 286 284 278 275 274 283 287 286 284 286 286 279 276 276 278 286 279 285 293 299 302 303 303 304 304
300 289 288 290 292 291 280 265 272 277 282 280 281 278 280 282 282 284 283 285 289 290 281 278 278 285 287 288 288 284 282 287 281 282 279 281 285 292 296 298 300 301 303 302 305
288 285 285 291 293 288 278 276 277 284 284 283 276 280 276 278 280 281 282 286 286 290 291 286 281 289 289 288 288 286 289 281 281 276 275 278 281 284 291 296 299 299 300 302 305
285 280 287 292 291 282 272 276 280 285 285 282 279 278 279 279 282 280 281 286 288 287 291 286 284 285 289 285 282 282 282 284 284 281 277 276 279 289 290 295 297 300 302 303 303
283 272 290 291 277 281 277 282 287 284 287 284 284 283 281 282 281 281 280 283 289 289 286 288 283 280 284 291 291 287 284 285 280 279 281 280 280 295 296 298 299 300 304 304 304
280 281 288 290 274 273 281 283 285 283 284 284 283 285 286 282 279 282 283 288 289 289 285 287 282 278 280 286 289 285 286 289 286 284 281 278 280 296 298 298 300 301 303 304 304
281 273 278 289 287 280 274 278 280 286 285 285 285 286 283 281 284 281 283 288 290 290 293 290 285 280 277 280 285 283 285 285 285 280 281 281 286 293 295 296 299 301 303 305 304
281 274 282 274 276 280 279 281 279 278 285 286 283 283 282 279 280 281 284 286 288 292 291 288 281 283 284 286 287 287 286 285 285 284 281 283 283 288 297 297 298 302 304 304 304
280 277 284 281 281 280 278 278 279 279 281 281 281 282 283 280 281 280 283 283 283 287 286 289 279 284 280 284 283 284 286 285 287 287 287 286 286 295 298 300 300 303 303 303 304
284 285 282 279 279 275 277 280 279 281 283 285 284 282 281 283 285 286 287 287 286 284 283 284 282 279 277 282 282 278 284 286 287 289 288 283 289 296 295 298 299 300 301 302 303

GFSSW_sfc_thetae_114.txt.gz
Theta_e
309 309 309 310 309 309 309 308 308 308 309 309 309 310 311 312 311 306 301 306 309 320 318 314 314 312 312 309 310 309 300 297 299 299 301 305 304 309 311 309 310 311 312 315 321
309 309 309 309 308 308 308 308 308 308 308 308 309 310 311 311 307 303 314 320 321 319 310 308 307 310 307 307 307 303 299 299 303 303 302 304 305 306 307 308 308 310 313 315 319
308 308 308 308 308 308 308 307 307 308 308 308 309 310 311 310 302 300 317 319 320 317 313 310 308 308 303 306 306 304 299 304 303 304 305 303 304 307 305 304 308 309 311 314 316
308 308 308 308 308 308 307 308 308 308 308 309 309 310 311 307 290 309 313 315 320 317 312 308 307 302 300 300 305 300 304 304 305 305 304 303 306 304 306 306 311 312 313 314 315
307 307 307 307 307 307 307 307 307 308 308 309 309 310 306 296 296 303 313 310 309 314 308 304 302 303 300 302 304 301 303 305 305 305 305 305 304 304 305 309 311 311 312 313 314
306 306 306 307 307 307 307 308 308 307 308 309 310 308 303 292 300 304 303 303 303 301 304 307 303 304 301 301 300 303 303 304 305 304 305 303 304 305 307 310 309 310 311 312 314
306 306 306 306 307 306 306 308 308 307 309 310 310 307 300 296 303 307 309 309 309 307 301 304 307 303 304 300 304 302 298 301 302 303 303 305 301 303 309 311 309 309 311 313 315
305 305 305 306 306 305 307 307 306 308 308 310 310 305 296 302 307 309 310 307 308 309 306 305 303 299 298 302 301 298 299 295 302 303 304 303 298 306 309 309 309 310 311 313 314
304 305 305 305 305 306 306 305 308 308 309 309 306 301 295 307 299 302 303 299 300 305 306 305 301 297 298 294 293 295 290 293 296 303 303 302 299 306 308 308 308 309 311 312 313
304 304 304 304 304 305 304 303 303 304 304 306 306 295 298 293 299 301 303 301 298 300 299 298 298 294 293 292 286 290 290 292 292 298 300 299 300 304 307 307 308 309 311 311 312
304 304 304 304 304 303 303 302 297 298 296 291 292 291 294 299 302 299 301 299 298 296 291 296 290 288 291 293 292 292 292 291 295 298 298 298 299 302 305 306 307 307 309 310 312
303 303 303 303 303 302 302 296 293 294 288 294 295 295 297 298 292 297 300 294 293 289 291 290 287 293 294 293 291 291 290 290 293 296 296 295 295 299 302 304 306 306 308 309 310
302 303 303 302 300 301 298 296 301 299 289 290 294 294 294 295 291 293 296 294 291 288 289 286 290 294 292 292 289 290 289 290 290 294 296 294 293 296 300 303 304 305 307 308 308
302 302 302 302 298 299 295 300 301 301 286 285 289 292 294 294 289 297 298 296 292 288 289 289 292 289 289 290 291 287 293 292 290 289 286 295 286 295 297 298 301 303 306 308 310
301 301 301 300 299 296 297 302 302 300 276 285 287 296 295 291 292 293 299 295 289 289 290 287 289 288 287 288 293 289 294 292 291 290 290 290 287 292 296 295 299 303 306 311 315
301 301 300 300 302 299 302 302 300 283 275 281 287 287 288 290 291 293 292 297 297 291 290 289 294 292 291 292 292 294 292 292 292 290 284 289 289 290 293 297 300 306 310 312 314
301 300 299 302 296 302 302 296 283 278 283 281 282 286 286 286 287 288 289 289 286 282 283 288 288 292 292 289 293 292 289 282 280 281 281 290 288 290 296 301 304 307 309 312 315
300 297 297 300 302 302 298 289 274 278 280 285 285 286 282 285 286 287 287 284 288 285 282 282 280 289 292 289 287 289 289 282 276 279 283 290 285 291 299 303 308 310 310 312 315
297 300 300 300 302 303 293 283 278 280 281 283 285 281 282 285 285 286 286 284 286 287 280 279 283 292 293 292 291 288 286 291 285 287 284 288 291 296 300 300 306 308 309 311 315
298 298 297 301 303 298 291 280 282 285 286 285 279 282 280 282 283 284 284 288 286 288 289 285 279 290 293 292 292 290 292 284 285 278 278 284 288 290 296 300 305 307 308 311 315
297 292 298 304 302 294 285 282 284 288 288 284 282 281 283 282 284 283 284 288 288 288 290 286 285 287 291 286 286 288 288 288 288 287 281 281 287 298 300 304 305 308 308 311 313
294 287 299 301 289 289 285 284 286 286 289 287 287 285 283 284 283 283 284 286 291 290 285 287 284 283 286 294 295 291 290 290 284 283 286 287 287 302 303 306 308 307 308 310 313
290 289 299 297 283 283 285 284 286 285 285 286 285 287 288 285 281 284 286 290 291 289 287 288 284 280 283 290 291 288 290 292 292 291 286 284 287 304 306 306 308 307 308 309 310
290 283 288 291 292 281 280 282 282 286 285 287 286 288 286 284 287 283 285 288 291 289 292 291 285 282 277 282 289 285 286 291 289 286 286 288 290 299 302 304 306 307 309 309 310
291 285 288 283 284 285 285 283 281 279 285 286 285 285 283 280 283 283 286 287 289 290 289 288 281 285 285 286 287 288 288 288 288 289 286 289 290 296 301 304 307 309 309 309 308
286 286 288 285 286 284 283 282 281 282 282 282 283 285 285 283 284 282 284 285 284 287 286 289 281 285 282 285 288 285 289 290 290 290 291 291 290 298 304 307 307 307 307 307 306
293 293 290 284 284 283 283 282 282 283 284 286 286 284 283 286 289 289 290 289 289 286 284 285 283 281 279 285 285 283 288 289 290 292 293 290 295 302 301 303 305 306 306 305 304

GFSSW_sfc_thetae_117.txt.gz
Theta_e
309 309 310 310 309 309 309 309 308 309 309 310 310 310 311 312 312 311 305 311 314 318 316 312 313 313 314 312 313 313 302 300 302 302 305 309 306 311 313 311 312 315 316 319 323
308 308 309 309 309 309 309 309 309 309 309 309 310 310 311 312 310 307 316 320 324 319 312 309 307 310 308 309 310 306 302 302 307 308 306 308 307 308 308 309 310 312 316 317 320
308 308 308 308 308 308 309 308 308 309 309 309 310 311 312 312 307 307 316 317 321 316 314 312 310 308 306 309 308 307 301 307 308 309 309 306 306 309 307 305 310 310 313 316 318
308 307 307 308 308 308 308 309 308 309 309 309 310 311 312 311 293 309 315 316 316 317 311 307 308 305 302 302 308 303 307 308 309 310 309 306 309 307 307 307 311 313 315 315 315
307 307 307 308 308 308 308 309 308 308 309 310 310 311 311 302 299 306 314 314 306 306 307 306 303 303 302 304 305 303 305 307 309 308 307 309 306 307 308 311 312 312 313 313 314
306 306 307 307 307 307 307 308 308 307 309 310 311 311 308 296 305 308 310 310 308 307 303 302 304 305 302 301 302 305 305 306 308 307 308 305 306 307 308 312 311 312 311 312 313
306 305 306 306 306 306 306 308 307 307 310 311 311 310 304 300 308 314 310 308 312 309 306 308 304 303 304 300 305 303 300 302 304 305 305 307 302 304 310 311 310 311 312 313 314
305 305 305 306 305 305 306 307 307 308 309 311 311 309 300 305 309 306 306 304 306 307 307 309 308 302 299 302 299 297 300 296 302 305 305 304 297 306 312 311 311 311 313 314 315
304 305 305 305 305 306 306 306 307 308 309 310 310 305 298 308 302 305 306 302 303 305 305 307 305 300 298 293 292 294 290 293 297 304 304 303 299 306 310 311 310 312 313 314 315
304 304 305 304 305 306 305 305 304 306 308 308 308 297 299 296 301 304 306 303 301 301 300 300 299 296 296 291 285 287 290 293 294 299 301 300 300 305 308 309 309 311 312 313 314
304 304 304 304 304 305 305 305 300 301 300 294 294 294 296 300 304 301 303 301 301 299 293 297 292 290 293 294 293 291 290 289 294 300 298 298 299 302 306 308 308 309 310 313 314
303 303 303 303 303 304 306 298 295 298 293 297 298 297 299 300 294 297 302 295 294 291 295 292 289 293 295 295 293 292 289 290 294 296 296 296 296 302 303 304 307 308 309 311 312
302 303 303 302 302 304 301 298 303 302 295 292 296 295 295 298 293 294 298 296 293 290 291 289 292 295 292 291 291 291 290 290 290 293 296 295 293 296 300 303 304 306 308 310 311
302 302 302 302 299 302 299 302 304 305 291 287 291 295 295 297 292 299 300 295 293 289 290 290 293 291 290 289 291 288 294 292 290 289 286 295 286 294 299 301 303 305 307 308 309
301 302 302 301 301 299 300 304 305 304 281 288 289 298 296 292 293 294 300 296 290 291 292 288 290 288 289 290 292 288 294 293 292 290 289 290 287 292 298 297 301 304 306 308 311
301 301 302 303 304 302 305 305 303 289 278 285 289 289 290 292 292 294 294 298 298 291 292 290 295 293 291 292 293 294 291 292 293 291 283 289 288 290 295 298 301 305 307 310 314
301 301 301 304 300 305 306 300 288 282 286 284 285 288 288 288 289 290 289 289 287 282 283 288 289 293 294 289 292 292 288 282 281 282 282 291 288 291 298 301 303 306 310 313 316
301 299 301 303 306 306 303 294 280 282 283 288 287 288 285 287 288 288 288 286 289 288 284 281 280 287 291 289 288 289 288 283 277 279 283 290 286 291 300 302 305 310 312 314 316
299 304 305 305 307 305 296 286 284 284 285 285 287 283 284 287 287 287 287 287 288 289 281 281 281 290 292 294 292 288 286 291 286 288 284 287 291 296 300 301 306 309 311 313 316
301 300 301 305 307 302 293 283 285 287 288 287 281 284 282 284 285 285 285 289 288 290 291 286 279 289 291 295 295 291 292 285 287 279 278 285 288 289 295 298 304 306 309 313 317
299 295 301 306 305 297 288 286 286 290 289 286 284 284 285 284 285 285 284 289 290 289 290 288 285 284 288 288 287 288 287 288 288 287 281 280 286 297 298 300 302 306 310 313 315
299 291 301 303 292 293 288 287 286 288 291 289 289 287 286 286 284 285 285 287 292 291 285 288 285 281 283 291 295 295 289 289 283 283 286 286 287 302 302 304 305 308 311 314 315
293 294 301 299 287 287 288 286 288 287 287 287 287 288 290 286 282 286 287 291 292 290 287 288 284 278 283 287 290 289 291 290 290 290 285 283 286 302 303 305 307 309 310 312 312
295 288 292 294 295 289 285 285 285 289 287 288 288 289 288 285 288 285 286 290 292 291 291 291 285 281 277 282 285 283 288 291 290 286 286 287 289 297 300 302 307 307 310 311 312
295 289 292 284 288 288 288 286 284 283 288 289 286 287 286 282 284 284 287 288 290 291 290 289 282 284 285 286 287 288 289 289 289 289 286 290 290 296 301 304 307 309 309 308 308
289 290 291 291 290 288 285 284 284 285 285 285 285 286 287 283 284 283 287 287 285 290 288 290 283 285 283 288 288 287 290 290 289 290 291 291 290 297 301 305 307 308 309 306 307
296 297 292 288 287 286 286 285 284 286 287 288 287 286 285 287 290 291 291 290 290 288 287 287 285 284 279 286 285 284 288 290 291 293 292 289 295 302 300 297 306 307 306 304 305

GFSSW_sfc_thetae_120.txt.gz
Theta_e
309 309 310 310 309 310 310 309 309 310 310 310 311 311 312 313 312 312 308 311 316 325 318 310 310 311 311 308 311 312 301 297 299 300 303 309 307 311 312 309 310 314 315 320 326
309 309 309 309 309 309 309 309 309 309 310 310 310 311 312 313 310 308 312 318 320 324 312 310 308 309 306 307 308 305 300 300 305 306 306 308 308 308 307 307 307 311 317 319 321
309 309 308 308 309 309 309 309 309 309 309 310 311 311 312 312 308 306 312 316 318 318 310 309 309 307 303 306 306 306 300 305 306 308 309 308 308 309 306 304 308 308 313 315 317
308 307 307 308 309 308 308 309 308 308 309 310 311 312 313 311 294 304 313 316 319 310 313 308 305 302 302 300 305 301 305 306 307 309 308 306 309 306 306 307 311 312 314 314 315
307 307 307 308 308 308 307 308 307 307 308 311 312 313 311 305 299 307 320 317 308 305 302 300 299 301 297 300 303 301 302 305 307 308 308 309 306 306 307 311 313 312 312 311 315
307 306 307 307 307 307 307 308 308 307 308 311 312 312 310 298 306 313 310 308 310 308 306 306 301 300 298 299 298 301 301 303 305 306 307 305 306 306 307 311 311 312 311 311 311
306 306 306 307 306 306 306 307 307 307 310 311 312 310 306 300 309 308 307 305 305 305 302 305 307 303 299 296 302 301 297 300 301 303 303 305 301 303 309 311 310 310 311 312 312
305 305 306 306 305 306 306 307 307 308 311 311 312 312 301 306 308 306 307 304 306 306 304 304 306 303 300 300 297 294 294 290 297 301 303 302 295 303 309 308 307 310 311 312 312
304 305 305 305 306 306 307 307 307 309 310 310 310 306 298 307 302 305 306 301 302 305 305 304 304 299 299 293 289 291 287 289 292 299 299 300 297 303 308 307 307 309 311 312 312
304 305 305 305 305 306 306 307 309 307 308 309 307 298 300 297 300 303 305 303 300 301 300 300 298 294 294 291 283 286 287 290 290 295 297 297 298 303 306 305 307 309 310 311 313
304 304 304 304 304 305 305 304 298 301 300 294 295 295 297 301 302 300 303 300 300 297 292 296 291 288 291 293 293 291 290 288 292 295 294 295 296 299 303 304 304 307 309 310 312
303 303 304 304 304 305 305 298 296 298 293 298 298 298 300 300 294 298 302 295 294 290 293 291 288 293 294 293 291 290 289 289 293 294 293 293 292 297 300 302 304 306 307 309 311
302 303 303 303 304 303 300 298 303 303 295 294 297 296 295 298 294 294 299 296 291 289 290 287 290 293 291 290 289 289 288 288 289 292 294 292 290 293 298 300 303 304 304 306 309
302 302 302 303 300 303 300 302 305 305 292 290 293 296 296 297 293 299 300 295 292 289 291 290 293 291 290 288 289 285 291 290 289 288 283 292 282 291 295 297 300 302 303 304 306
302 302 302 302 302 300 301 304 304 304 281 289 291 299 296 293 293 294 300 296 289 290 290 287 288 287 287 287 290 287 292 290 289 287 288 288 284 288 294 294 297 301 304 305 306
301 302 302 304 305 303 305 305 303 290 280 286 291 290 290 292 292 295 294 297 296 292 291 289 293 291 289 291 292 292 290 288 289 287 281 287 286 286 290 294 297 302 305 306 309
301 302 300 303 301 306 307 302 288 282 288 285 286 289 289 288 289 290 289 289 287 282 282 286 288 291 293 287 290 289 286 278 278 279 279 288 286 288 294 297 298 302 308 312 314
301 301 304 303 307 307 304 294 281 285 284 289 287 288 286 288 288 288 288 285 289 288 283 280 279 287 291 287 286 287 285 279 273 276 280 288 283 288 297 299 301 309 311 313 314
301 302 304 305 307 306 297 286 285 286 287 285 287 285 285 287 287 287 286 286 288 289 281 280 280 289 291 291 290 288 283 288 283 285 281 285 289 294 297 298 299 308 310 311 314
298 300 301 305 307 302 293 287 286 289 288 288 282 285 282 285 284 285 285 288 287 291 291 285 279 287 289 291 293 291 292 283 283 275 275 281 285 287 292 295 300 306 308 312 316
297 294 301 305 304 297 288 288 288 291 290 287 285 284 285 284 285 284 284 288 290 289 290 289 284 282 287 285 284 287 286 288 286 284 278 278 283 295 297 297 302 306 310 312 314
298 291 302 304 292 293 289 289 287 290 291 289 289 287 286 286 284 284 284 287 291 291 285 289 285 278 282 289 292 290 286 287 281 280 284 284 284 297 301 302 304 305 310 313 314
292 294 301 300 287 288 290 288 288 288 288 288 287 288 289 286 282 285 286 291 291 289 287 288 282 277 279 285 288 285 287 289 289 289 283 281 284 297 300 302 303 307 311 312 311
295 288 292 293 293 290 288 287 286 289 288 289 287 289 287 285 288 284 285 289 291 290 291 291 285 280 276 280 285 282 286 288 289 283 284 285 287 292 298 298 305 306 306 308 309
295 290 293 286 288 289 290 287 285 284 288 289 287 286 285 283 284 283 286 287 289 292 290 289 281 284 284 285 286 286 287 289 287 288 284 287 288 292 298 300 304 306 308 308 307
290 290 292 289 291 288 287 286 285 286 286 285 285 286 287 284 284 282 285 285 285 288 287 289 282 285 283 286 286 284 288 289 289 289 289 290 290 299 300 299 301 302 306 306 305
296 296 292 289 288 287 287 286 286 288 288 288 287 285 284 286 289 289 290 289 288 286 286 287 285 283 279 284 284 282 285 287 288 292 293 288 293 297 299 299 298 295 301 303 303

GFSSW_sfc_thetae_126.txt.gz
Theta_e
309 310 310 310 309 310 310 310 309 309 310 310 311 312 313 313 313 309 299 303 306 320 319 306 304 302 299 298 299 298 289 286 289 292 296 303 301 304 306 302 305 303 308 314 323
309 310 309 309 309 309 309 309 309 309 309 309 310 312 313 313 307 298 309 316 319 320 305 303 301 300 294 294 296 293 287 290 296 298 299 302 302 303 302 302 304 304 318 322 324
309 309 309 309 309 309 309 308 308 309 309 309 310 313 315 312 304 300 316 319 320 317 301 304 305 300 292 293 294 292 291 296 298 300 302 301 301 304 300 299 303 301 305 313 318
308 308 308 308 309 309 308 308 308 309 309 309 311 313 314 308 293 297 318 320 323 312 302 298 296 290 287 286 292 289 294 296 297 300 300 298 301 300 300 302 306 305 306 307 309
308 307 308 308 308 308 308 308 308 308 309 310 312 314 307 300 293 302 318 313 304 301 298 297 296 294 290 292 291 288 291 294 295 295 295 297 296 298 298 301 305 307 306 305 305
307 307 307 307 308 308 307 308 308 308 309 310 312 314 304 291 300 301 301 301 300 298 297 296 294 295 294 292 290 291 291 291 291 292 293 294 296 294 299 301 304 306 305 304 304
306 306 306 307 307 307 307 307 307 308 309 310 312 309 302 295 300 300 301 299 299 298 296 297 297 293 293 292 295 293 287 289 290 290 291 291 292 292 300 301 302 304 306 306 305
305 305 305 307 307 306 306 307 308 308 309 310 312 306 297 304 300 299 299 300 301 300 298 298 298 294 291 294 292 289 285 280 286 289 290 289 285 293 297 298 299 303 304 306 307
304 304 306 306 306 307 307 307 308 310 310 310 304 302 295 307 297 298 299 298 298 298 297 302 295 290 291 286 281 282 279 280 285 289 288 286 285 292 294 296 298 301 302 304 305
303 304 305 305 306 306 306 307 307 307 306 305 305 295 299 295 297 298 297 298 296 295 293 292 289 286 284 282 276 279 280 282 282 286 287 286 286 291 293 293 294 295 297 300 304
303 304 304 305 305 306 303 299 293 297 296 291 292 293 295 298 298 295 298 296 294 291 284 288 282 279 281 284 285 284 283 282 285 289 286 285 286 288 291 292 292 293 296 298 301
303 303 303 304 304 305 301 293 295 294 288 297 296 297 299 297 291 293 298 291 288 283 286 283 280 287 288 287 285 284 281 281 285 288 287 285 285 288 290 291 292 293 294 297 297
303 302 303 303 304 301 294 294 299 298 288 295 296 295 294 294 290 290 294 291 286 284 283 280 285 290 287 285 283 283 281 281 282 286 287 285 282 285 290 291 293 294 295 297 297
303 302 303 303 300 298 295 298 300 300 283 287 291 294 294 292 289 293 296 290 287 283 284 284 289 287 285 283 284 279 286 285 283 281 276 284 274 283 287 288 291 293 295 296 297
302 301 302 302 295 295 298 299 299 299 276 290 291 296 292 289 289 291 293 290 285 285 285 282 285 284 282 283 286 283 286 284 284 282 280 280 277 281 286 285 288 292 295 294 297
301 301 302 301 297 299 300 301 298 284 277 285 289 288 287 289 289 290 290 292 291 287 286 284 288 285 285 287 286 287 285 284 284 282 275 280 278 278 282 285 289 292 295 295 296
301 300 299 300 296 300 300 297 285 278 288 283 285 287 286 285 287 287 285 283 281 278 278 283 283 286 288 283 285 284 281 275 273 273 273 282 280 280 286 289 291 292 294 294 295
300 300 299 300 300 301 298 289 279 286 284 289 286 286 283 286 285 286 283 280 284 283 278 276 275 282 287 283 281 282 282 277 271 273 275 283 276 280 288 291 293 295 295 303 311
299 294 295 300 301 300 292 280 281 285 288 285 285 282 283 285 284 284 282 280 284 284 276 277 277 286 286 286 285 283 279 285 280 282 277 278 281 286 289 290 293 294 294 309 309
293 294 296 300 300 297 287 285 286 289 288 288 282 284 279 281 281 281 281 285 285 287 286 281 275 283 285 287 288 286 287 279 281 274 272 275 276 278 285 288 292 296 298 304 308
292 290 296 300 298 291 281 284 287 290 290 286 284 283 282 281 282 280 280 285 287 286 286 282 279 280 283 280 279 280 281 283 283 281 276 273 276 291 293 298 300 303 303 302 306
290 285 297 297 286 288 283 289 291 288 290 288 287 286 283 283 281 280 280 283 288 287 281 283 278 275 278 284 286 283 282 283 278 276 280 279 279 294 294 298 297 299 304 305 305
289 289 295 295 280 283 289 287 288 288 288 287 286 288 287 282 278 283 283 288 287 286 281 282 276 273 275 280 284 281 283 284 285 284 279 276 279 294 297 299 299 298 300 303 303
290 282 286 286 289 286 286 285 284 289 287 288 286 286 284 281 284 281 283 287 288 286 293 287 279 273 270 275 279 277 282 285 285 280 280 281 284 291 295 296 297 298 298 304 302
288 285 287 279 281 286 287 288 285 283 287 287 284 284 282 278 280 279 282 283 285 288 284 282 274 276 279 280 281 282 283 283 283 283 280 283 286 289 293 295 296 297 296 295 299
284 285 288 286 288 285 286 285 285 286 285 284 282 284 282 279 280 278 281 280 280 283 281 282 275 279 278 281 283 282 284 284 285 284 283 283 284 290 296 297 296 296 295 295 294
289 290 288 285 283 283 283 285 285 287 287 287 285 282 281 283 284 284 284 284 283 281 279 279 278 277 275 280 281 280 281 282 284 284 284 279 284 288 294 295 295 296 295 295 294

GFSSW_sfc_thetae_132.txt.gz
Theta_e
310 310 310 310 310 310 310 309 309 309 310 310 311 312 313 313 312 306 291 300 302 318 315 300 298 298 296 295 296 295 288 285 288 290 293 299 297 301 301 299 300 302 304 306 318
310 310 310 310 309 309 309 309 308 309 309 310 311 312 313 314 305 297 306 316 319 319 296 296 294 297 291 292 292 290 286 288 294 294 294 297 295 297 295 296 298 300 305 306 319
310 310 310 309 309 309 309 308 308 309 309 310 311 312 313 309 300 295 316 317 320 318 297 297 297 293 288 286 289 289 287 291 292 293 290 292 292 294 294 290 297 297 300 302 305
310 310 309 309 308 308 308 308 308 308 309 310 311 313 314 304 287 294 322 321 322 304 297 295 294 290 285 283 288 284 288 288 289 291 289 288 291 292 291 292 298 300 300 300 302
310 309 308 308 307 308 308 307 307 308 309 310 311 313 305 295 292 298 316 309 298 297 294 293 290 289 286 287 289 285 286 289 290 290 287 289 287 289 290 294 296 298 300 300 302
310 309 308 307 307 307 308 307 307 308 308 310 311 313 300 288 298 298 297 297 296 294 292 292 290 291 287 288 286 288 288 289 287 288 287 287 288 286 289 292 293 295 295 296 299
310 309 308 307 306 307 306 306 306 307 309 310 311 307 299 291 297 296 299 296 295 294 291 293 293 290 289 286 291 290 285 285 285 287 284 289 284 284 290 292 293 293 294 294 295
310 309 307 305 306 306 306 306 307 308 310 310 310 304 293 306 299 295 295 295 296 295 294 294 295 291 288 290 287 284 282 279 285 286 287 286 280 287 291 291 290 292 293 294 295
310 308 307 306 306 306 306 306 308 308 310 310 302 299 292 306 295 295 295 294 295 295 295 299 293 288 288 283 279 280 275 277 281 286 284 284 282 287 290 290 290 291 292 293 294
310 308 306 305 305 306 306 307 307 306 306 304 303 292 296 292 294 295 294 296 293 292 291 291 286 283 282 280 274 276 276 279 278 281 282 281 282 286 289 289 289 290 291 292 292
310 307 306 305 305 305 303 297 292 290 293 291 292 292 292 295 296 293 296 294 292 290 284 286 283 279 280 281 282 281 278 277 280 283 281 281 283 285 288 288 288 289 290 291 292
309 307 305 304 304 305 298 293 293 294 285 293 294 294 296 293 288 290 295 288 287 282 284 282 279 283 285 283 282 280 278 277 281 283 283 281 281 284 287 287 289 289 290 291 292
308 307 305 304 303 299 292 294 298 296 283 289 294 293 294 293 288 288 293 289 284 282 281 279 283 287 284 281 280 279 277 277 279 282 282 280 279 282 287 289 291 293 293 293 292
307 306 305 303 299 297 291 297 299 296 279 284 289 292 291 291 286 291 292 288 284 281 282 282 286 284 282 280 280 276 282 281 280 277 272 281 271 281 285 287 290 293 295 293 293
306 305 304 303 295 292 295 296 299 293 272 287 288 293 289 288 288 289 292 290 284 283 282 280 282 281 280 281 282 279 283 281 280 278 275 276 273 278 285 285 288 294 296 297 294
305 303 302 299 296 297 298 299 297 278 272 284 287 286 286 288 288 290 290 292 290 285 284 282 285 284 283 285 283 285 281 280 280 277 272 277 276 278 281 285 290 296 298 300 301
304 302 299 300 295 299 299 296 279 273 285 281 283 286 284 283 285 286 285 284 280 277 278 281 281 284 285 279 282 281 278 272 272 272 272 279 277 279 286 289 295 296 298 298 302
303 302 301 299 299 298 297 287 275 281 283 286 285 284 282 284 285 285 282 280 282 281 276 275 274 280 284 279 277 279 278 270 262 270 272 279 274 279 288 293 297 299 298 301 302
301 295 295 298 300 299 291 278 278 283 285 284 283 280 281 284 284 283 281 279 282 283 276 275 275 283 283 283 281 277 275 281 270 277 274 276 279 285 292 293 297 297 298 298 303
291 291 292 300 299 296 286 281 283 287 287 287 280 282 279 281 281 281 280 284 283 285 284 280 274 281 283 284 283 281 283 273 276 268 269 273 276 279 285 288 292 295 297 298 300
292 286 296 299 299 290 280 281 285 289 289 286 283 281 282 280 281 279 280 283 285 285 284 281 278 278 280 276 276 277 275 278 279 276 272 272 276 285 287 289 290 295 297 296 296
292 284 297 298 287 285 281 285 290 287 289 287 286 284 283 283 281 281 280 282 287 285 279 281 278 274 275 281 283 281 279 279 273 271 278 277 276 289 287 291 291 293 294 294 293
288 288 295 294 280 282 285 287 287 286 287 286 285 287 286 283 279 282 282 286 285 283 281 282 275 269 273 276 279 277 279 281 281 280 276 274 276 289 288 289 292 294 294 293 292
288 282 286 289 287 285 283 282 283 288 287 287 286 286 283 281 284 281 282 285 285 286 290 286 278 269 265 270 276 274 278 279 280 276 277 278 278 283 284 285 293 294 293 290 289
288 282 285 279 279 286 285 285 283 282 287 287 284 284 282 279 280 280 281 281 283 289 282 280 272 275 277 278 277 278 277 280 273 279 277 278 279 283 285 284 288 289 289 288 287
285 284 287 284 286 285 286 282 283 284 285 283 282 284 283 280 281 278 280 280 279 281 279 279 273 277 275 278 278 277 281 280 280 282 280 280 280 286 288 287 285 286 286 285 285
289 290 288 284 283 283 281 285 284 285 286 287 285 283 282 282 284 284 284 283 282 280 278 278 276 275 273 278 278 274 278 278 275 282 281 276 281 286 286 284 284 285 286 285 284

GFSSW_sfc_thetae_135.txt.gz
Theta_e
311 310 310 311 310 310 310 310 309 309 310 311 311 312 313 314 313 308 297 303 306 319 315 302 302 303 303 303 304 303 299 295 295 295 298 303 298 303 305 303 303 306 307 309 312
312 311 310 310 309 309 309 309 309 309 310 311 311 312 313 314 308 300 310 319 321 320 302 300 299 301 299 299 300 300 297 295 299 299 297 297 296 297 297 298 300 301 305 308 308
312 311 310 310 309 309 309 309 308 309 310 311 311 312 314 312 303 299 317 320 322 315 303 301 300 297 295 295 296 296 295 296 296 297 294 293 294 296 295 293 296 297 300 303 305
313 311 310 310 308 308 308 308 308 308 310 310 311 313 315 308 288 301 321 318 319 307 301 300 299 296 293 291 295 292 293 293 294 295 293 292 294 294 294 295 298 298 300 300 300
313 311 310 309 308 307 308 308 307 308 309 310 311 313 308 297 297 302 314 310 302 301 298 297 295 295 292 293 293 292 291 293 294 293 291 292 291 292 294 296 297 298 298 298 299
313 311 310 309 308 307 308 307 307 307 309 310 311 313 304 289 301 302 300 301 300 299 297 297 295 295 293 293 291 292 292 293 292 292 291 290 291 292 294 296 296 296 296 297 298
313 311 310 309 307 306 307 307 307 307 309 310 311 308 301 293 302 301 301 301 301 299 296 297 298 295 294 290 294 293 290 290 290 290 290 292 289 290 293 294 294 294 296 297 298
314 312 311 308 307 306 307 307 307 307 309 311 310 306 294 308 303 299 300 299 300 300 298 298 299 296 294 294 290 287 287 284 289 290 290 290 285 290 294 293 292 294 296 297 298
313 312 310 308 307 307 307 307 307 308 310 310 306 303 293 307 298 299 299 297 298 299 299 299 298 292 292 288 285 286 282 282 285 290 288 287 284 289 293 292 292 294 295 296 297
313 312 310 308 307 307 306 306 307 307 307 305 304 296 297 295 298 298 299 298 295 296 295 294 291 289 288 287 281 281 281 282 282 287 287 285 285 289 292 292 292 293 294 296 296
313 312 310 308 307 306 304 299 294 293 298 292 294 293 295 297 299 296 299 296 295 293 288 290 287 284 285 287 286 284 282 281 284 287 285 285 285 287 290 291 291 292 294 295 299
313 311 309 308 307 306 302 294 295 295 289 294 296 295 297 296 291 294 299 292 290 285 287 287 284 287 288 286 284 283 281 280 284 286 285 285 284 288 290 291 293 294 296 300 301
312 310 309 307 306 302 296 297 300 297 287 289 294 293 295 295 290 291 295 291 288 285 285 284 286 288 286 284 282 282 280 281 281 284 286 284 284 286 292 293 295 296 300 302 303
311 309 307 306 299 298 295 300 300 298 282 284 290 293 294 293 289 294 295 292 288 284 286 286 288 285 284 283 283 279 284 283 282 281 277 284 278 285 288 290 293 295 300 302 303
311 308 305 303 296 295 298 300 302 296 273 288 289 295 291 290 290 291 295 292 286 285 286 283 285 284 282 283 285 282 286 283 283 281 280 281 279 284 288 288 291 297 300 302 303
309 307 303 299 298 299 299 302 299 282 273 284 288 287 287 288 289 291 292 294 292 287 286 285 288 287 285 287 285 286 284 284 283 282 276 281 280 281 285 288 293 296 300 302 303
308 305 301 301 295 301 301 296 282 275 286 282 284 286 285 285 286 288 287 285 283 280 279 283 284 287 288 283 285 285 282 276 275 276 275 282 279 282 288 293 293 295 297 300 301
306 303 300 301 302 302 300 286 277 282 283 286 286 285 283 286 285 285 284 282 285 284 280 278 276 284 286 284 280 282 282 276 270 272 275 281 277 283 291 293 295 295 297 298 296
304 297 296 297 301 301 289 278 281 283 286 284 284 282 282 284 285 284 283 283 285 286 281 278 278 285 286 286 285 281 280 284 277 278 275 279 283 288 290 290 291 293 294 292 292
295 292 293 300 302 296 284 281 283 289 287 287 280 283 279 282 282 283 283 285 284 287 287 282 277 283 284 287 285 284 285 278 280 271 270 277 279 280 284 286 288 290 292 290 289
292 285 294 301 301 289 280 282 287 289 290 286 283 282 282 282 283 281 282 285 287 285 286 284 281 280 282 281 280 282 281 280 281 279 273 273 279 287 286 287 287 290 290 289 288
290 284 293 300 284 285 282 286 290 287 289 288 287 285 284 284 282 281 282 284 289 287 282 284 282 276 278 283 285 283 282 282 277 273 279 278 279 290 289 288 288 290 290 289 289
288 286 294 295 280 281 286 286 287 286 286 286 285 287 287 284 280 283 283 286 287 286 284 285 279 273 275 280 282 281 282 282 281 280 277 276 279 290 289 288 288 287 289 289 288
287 282 286 288 288 284 284 284 284 289 287 288 286 287 285 283 285 282 282 285 287 288 290 288 280 277 273 275 279 277 279 281 282 277 279 280 280 285 285 286 286 287 288 288 287
288 285 288 282 283 286 287 285 283 282 287 287 285 285 284 280 282 280 282 282 285 289 284 284 278 278 279 279 279 279 279 280 279 280 278 281 280 283 285 286 287 287 287 286 285
285 284 286 286 286 285 286 284 284 284 285 283 284 285 285 282 284 280 281 282 282 283 282 282 276 278 276 280 279 277 280 282 281 282 282 281 281 286 288 289 286 286 285 284 284
290 292 288 285 285 283 283 284 284 286 287 288 286 284 283 284 286 286 286 285 285 282 280 280 278 277 274 280 280 276 280 280 280 282 281 277 282 285 285 286 285 284 284 283 283